MAS21 LFPG-WMKK

Flight info

Callsign MAS21
Flight time 11h 34m
Altitude 39000
Route LANVI6H LANVI DCT BEGAR DCT TRA DCT GAMSA DCT UMVEG DCT DIMLO/N0482F370 DCT INVED DCT NERDI DCT ASNEL DCT UDROS UM859 KARDE UL851 TBN UM11 REBLO M11 MATAL T916 SUBUT T923 ERLEV M11 AMOKU/N0485F390 M11 RODAR A909 ABDAN A846 RANAH L750 MERUN L333 KKJ L759 ENTAP/N0488F410 L759 PUT B579 VPL Y503 RINBA Y507 KAKAK KAKAK1G
Aircraft A359/H-V/N

Departure

Time 2026-05-05 00:32
Airport Charles de Gaulle International Airport (LFPG)

Arrival

Time 2026-05-05 12:06
Airport Kuala Lumpur International Airport (WMKK)
Time Latitude Longitude Altitude Speed Heading
2026-05-05 00:15 49.00155 2.55913 360 ft 0 kts 19°
2026-05-05 00:23 49.00140 2.55906 368 ft 4 kts 19°
2026-05-05 00:23 49.00117 2.55893 364 ft 4 kts 16°
2026-05-05 00:24 49.00096 2.55888 363 ft 4 kts 340°
2026-05-05 00:24 49.00084 2.55898 364 ft 4 kts 290°
2026-05-05 00:24 49.00079 2.55933 365 ft 4 kts 269°
2026-05-05 00:24 49.00080 2.55961 360 ft 1 kts 266°
2026-05-05 00:25 49.00080 2.55965 360 ft 0 kts 266°
2026-05-05 00:27 49.00077 2.55879 362 ft 13 kts 266°
2026-05-05 00:27 49.00071 2.55723 360 ft 19 kts 266°
2026-05-05 00:28 49.00013 2.55540 365 ft 21 kts 238°
2026-05-05 00:28 48.99980 2.55358 360 ft 17 kts 266°
2026-05-05 00:28 48.99968 2.55135 360 ft 24 kts 265°
2026-05-05 00:28 48.99953 2.54885 361 ft 21 kts 256°
2026-05-05 00:29 48.99890 2.54823 366 ft 12 kts 181°
2026-05-05 00:29 48.99794 2.54833 360 ft 14 kts 171°
2026-05-05 00:29 48.99744 2.54885 367 ft 4 kts 120°
2026-05-05 00:29 48.99727 2.54930 366 ft 11 kts 121°
2026-05-05 00:30 48.99682 2.55063 366 ft 16 kts 116°
2026-05-05 00:30 48.99634 2.55215 366 ft 16 kts 116°
2026-05-05 00:30 48.99585 2.55377 366 ft 16 kts 105°
2026-05-05 00:30 48.99585 2.55541 364 ft 20 kts 86°
2026-05-05 00:31 48.99612 2.56053 365 ft 77 kts 85°
2026-05-05 00:31 48.99671 2.57135 364 ft 127 kts 85°
2026-05-05 00:31 48.99755 2.58713 358 ft 171 kts 85°
2026-05-05 00:31 48.99840 2.60625 711 ft 183 kts 84°
2026-05-05 00:32 48.99915 2.62580 1268 ft 189 kts 85°
2026-05-05 00:32 48.99995 2.64649 1712 ft 203 kts 85°
2026-05-05 00:32 49.00084 2.66890 2108 ft 222 kts 85°
2026-05-05 00:32 49.00222 2.69315 2467 ft 242 kts 83°
2026-05-05 00:33 49.00400 2.71908 3102 ft 250 kts 83°
2026-05-05 00:33 49.00568 2.74563 3825 ft 254 kts 84°
2026-05-05 00:33 49.00656 2.77261 4492 ft 258 kts 90°
2026-05-05 00:33 49.00470 2.79997 5174 ft 261 kts 98°
2026-05-05 00:34 49.00184 2.82743 5848 ft 264 kts 98°
2026-05-05 00:34 48.99892 2.85522 6473 ft 268 kts 98°
2026-05-05 00:34 48.99604 2.88336 7050 ft 271 kts 98°
2026-05-05 00:34 48.99419 2.90172 7429 ft 273 kts 98°
2026-05-05 00:35 48.99136 2.92990 7995 ft 275 kts 98°
2026-05-05 00:35 48.98749 2.96872 8752 ft 279 kts 98°
2026-05-05 00:35 48.98493 2.99821 9298 ft 282 kts 97°
2026-05-05 00:35 48.98255 3.02800 9833 ft 285 kts 97°
2026-05-05 00:36 48.98015 3.05785 10190 ft 294 kts 97°
2026-05-05 00:36 48.97752 3.08984 10405 ft 306 kts 97°
2026-05-05 00:36 48.97572 3.11144 10564 ft 314 kts 97°
2026-05-05 00:36 48.97290 3.14504 10795 ft 326 kts 97°
2026-05-05 00:37 48.96899 3.19143 11096 ft 341 kts 97°
2026-05-05 00:37 48.96692 3.21586 11243 ft 348 kts 97°
2026-05-05 00:37 48.96272 3.26514 11530 ft 361 kts 97°
2026-05-05 00:37 48.95944 3.30355 11742 ft 371 kts 97°
2026-05-05 00:38 48.95605 3.34291 11951 ft 379 kts 97°
2026-05-05 00:38 48.95261 3.38286 12283 ft 384 kts 97°
2026-05-05 00:38 48.94910 3.42328 12656 ft 387 kts 97°
2026-05-05 00:38 48.94676 3.45028 12882 ft 389 kts 98°
2026-05-05 00:39 48.94321 3.49084 13261 ft 391 kts 97°
2026-05-05 00:39 48.93958 3.53237 13615 ft 395 kts 98°
2026-05-05 00:39 48.93606 3.57396 13956 ft 397 kts 97°
2026-05-05 00:39 48.93374 3.61593 14302 ft 400 kts 94°
2026-05-05 00:40 48.93188 3.65821 14638 ft 402 kts 94°
2026-05-05 00:40 48.92987 3.70079 14974 ft 405 kts 95°
2026-05-05 00:40 48.92772 3.74355 15336 ft 407 kts 95°
2026-05-05 00:40 48.92547 3.78659 15682 ft 409 kts 95°
2026-05-05 00:41 48.92317 3.82983 16029 ft 411 kts 96°
2026-05-05 00:41 48.92082 3.87323 16381 ft 413 kts 96°
2026-05-05 00:41 48.91843 3.91687 16715 ft 416 kts 96°
2026-05-05 00:41 48.91601 3.96079 17070 ft 417 kts 96°
2026-05-05 00:42 48.91356 4.00481 17418 ft 419 kts 96°
2026-05-05 00:42 48.91108 4.04917 17762 ft 421 kts 96°
2026-05-05 00:42 48.90857 4.09360 18098 ft 423 kts 96°
2026-05-05 00:42 48.90603 4.13839 18401 ft 426 kts 96°
2026-05-05 00:43 48.90327 4.18268 18672 ft 427 kts 98°
2026-05-05 00:43 48.89748 4.22691 18922 ft 427 kts 108°
2026-05-05 00:43 48.88636 4.26865 19187 ft 426 kts 118°
2026-05-05 00:43 48.87210 4.30814 19497 ft 427 kts 121°
2026-05-05 00:44 48.85719 4.34790 19767 ft 429 kts 121°
2026-05-05 00:44 48.84265 4.38701 20034 ft 431 kts 121°
2026-05-05 00:44 48.82797 4.42674 20304 ft 433 kts 121°
2026-05-05 00:44 48.81320 4.46679 20571 ft 435 kts 121°
2026-05-05 00:45 48.79844 4.50685 20849 ft 436 kts 121°
2026-05-05 00:45 48.78360 4.54709 21114 ft 438 kts 121°
2026-05-05 00:45 48.76868 4.58753 21394 ft 440 kts 121°
2026-05-05 00:45 48.75367 4.62812 21668 ft 442 kts 121°
2026-05-05 00:46 48.73860 4.66885 21938 ft 444 kts 121°
2026-05-05 00:46 48.72345 4.70971 22217 ft 446 kts 121°
2026-05-05 00:46 48.70848 4.75004 22489 ft 447 kts 121°
2026-05-05 00:46 48.69295 4.79182 22768 ft 449 kts 121°
2026-05-05 00:47 48.67760 4.83304 23033 ft 451 kts 121°
2026-05-05 00:47 48.66215 4.87448 23320 ft 453 kts 121°
2026-05-05 00:47 48.64663 4.91601 23584 ft 454 kts 121°
2026-05-05 00:47 48.63107 4.95761 23815 ft 456 kts 122°
2026-05-05 00:48 48.61539 4.99945 24053 ft 457 kts 122°
2026-05-05 00:48 48.59969 5.04129 24291 ft 459 kts 122°
2026-05-05 00:48 48.58391 5.08325 24525 ft 460 kts 122°
2026-05-05 00:48 48.56828 5.12476 24758 ft 462 kts 122°
2026-05-05 00:49 48.55238 5.16693 24989 ft 463 kts 123°
2026-05-05 00:49 48.53638 5.20928 25233 ft 464 kts 123°
2026-05-05 00:49 48.52035 5.25165 25472 ft 466 kts 123°
2026-05-05 00:49 48.50424 5.29418 25714 ft 467 kts 123°
2026-05-05 00:50 48.48812 5.33666 25968 ft 469 kts 123°
2026-05-05 00:50 48.47182 5.37951 26199 ft 470 kts 123°
2026-05-05 00:50 48.45549 5.42239 26444 ft 472 kts 124°
2026-05-05 00:50 48.43911 5.46531 26702 ft 473 kts 124°
2026-05-05 00:51 48.42268 5.50833 26943 ft 475 kts 124°
2026-05-05 00:51 48.40616 5.55150 27202 ft 476 kts 124°
2026-05-05 00:51 48.38960 5.59470 27458 ft 478 kts 124°
2026-05-05 00:51 48.37314 5.63756 27699 ft 479 kts 124°
2026-05-05 00:52 48.35643 5.68103 27954 ft 481 kts 124°
2026-05-05 00:52 48.33964 5.72462 28194 ft 482 kts 124°
2026-05-05 00:52 48.32290 5.76829 28436 ft 484 kts 124°
2026-05-05 00:52 48.30809 5.81400 28639 ft 491 kts 116°
2026-05-05 00:53 48.29629 5.86231 28878 ft 494 kts 113°
2026-05-05 00:53 48.28549 5.91127 29087 ft 496 kts 112°
2026-05-05 00:53 48.27505 5.96071 29309 ft 498 kts 111°
2026-05-05 00:53 48.26463 6.01043 29517 ft 499 kts 111°
2026-05-05 00:54 48.25412 6.06016 29768 ft 500 kts 112°
2026-05-05 00:54 48.24349 6.10969 30086 ft 499 kts 112°
2026-05-05 00:54 48.23273 6.15917 30349 ft 498 kts 112°
2026-05-05 00:54 48.22189 6.20855 30591 ft 498 kts 112°
2026-05-05 00:55 48.21099 6.25787 30846 ft 498 kts 112°
2026-05-05 00:55 48.20008 6.30701 31120 ft 497 kts 113°
2026-05-05 00:55 48.18914 6.35622 31370 ft 497 kts 113°
2026-05-05 00:55 48.17822 6.40522 31613 ft 497 kts 113°
2026-05-05 00:56 48.16726 6.45431 31861 ft 497 kts 113°
2026-05-05 00:56 48.15629 6.50338 32099 ft 496 kts 113°
2026-05-05 00:56 48.14530 6.55241 32327 ft 496 kts 113°
2026-05-05 00:56 48.13429 6.60146 32558 ft 497 kts 113°
2026-05-05 00:57 48.12325 6.65050 32763 ft 497 kts 113°
2026-05-05 00:57 48.11219 6.69953 33000 ft 496 kts 113°
2026-05-05 00:57 48.10114 6.74842 33260 ft 496 kts 113°
2026-05-05 00:57 48.09010 6.79717 33501 ft 495 kts 114°
2026-05-05 00:58 48.07901 6.84597 33731 ft 495 kts 114°
2026-05-05 00:58 48.06789 6.89477 33978 ft 495 kts 114°
2026-05-05 00:58 48.05680 6.94337 34213 ft 493 kts 114°
2026-05-05 00:58 48.04573 6.99177 34461 ft 492 kts 113°
2026-05-05 00:59 48.03480 7.03946 34650 ft 491 kts 113°
2026-05-05 00:59 48.02371 7.08778 34822 ft 491 kts 113°
2026-05-05 00:59 48.01259 7.13603 35011 ft 491 kts 113°
2026-05-05 00:59 48.00146 7.18426 35202 ft 491 kts 113°
2026-05-05 01:00 47.99030 7.23246 35393 ft 490 kts 113°
2026-05-05 01:00 47.97917 7.28046 35585 ft 490 kts 113°
2026-05-05 01:00 47.96802 7.32842 35751 ft 489 kts 113°
2026-05-05 01:00 47.95682 7.37647 35917 ft 489 kts 113°
2026-05-05 01:01 47.94562 7.42446 36073 ft 489 kts 113°
2026-05-05 01:01 47.93442 7.47235 36228 ft 489 kts 113°
2026-05-05 01:01 47.92319 7.52027 36384 ft 489 kts 113°
2026-05-05 01:01 47.91198 7.56801 36543 ft 488 kts 113°
2026-05-05 01:02 47.90066 7.61583 36696 ft 488 kts 114°
2026-05-05 01:02 47.88897 7.66320 36862 ft 486 kts 115°
2026-05-05 01:02 47.87697 7.71029 37030 ft 485 kts 115°
2026-05-05 01:02 47.86504 7.75655 37202 ft 485 kts 115°
2026-05-05 01:03 47.85279 7.80398 37354 ft 484 kts 115°
2026-05-05 01:03 47.84077 7.85071 37515 ft 483 kts 115°
2026-05-05 01:03 47.82895 7.89681 37643 ft 483 kts 115°
2026-05-05 01:03 47.81703 7.94342 37778 ft 482 kts 115°
2026-05-05 01:04 47.80510 7.99004 37912 ft 482 kts 115°
2026-05-05 01:04 47.78120 8.08314 38131 ft 481 kts 115°
2026-05-05 01:04 47.77103 8.12270 38234 ft 481 kts 115°
2026-05-05 01:05 47.75909 8.16901 38382 ft 480 kts 115°
2026-05-05 01:05 47.74714 8.21529 38492 ft 480 kts 115°
2026-05-05 01:05 47.73517 8.26155 38602 ft 479 kts 115°
2026-05-05 01:05 47.72318 8.30776 38684 ft 479 kts 115°
2026-05-05 01:06 47.69915 8.40011 38768 ft 480 kts 115°
2026-05-05 01:06 47.67549 8.49302 38862 ft 482 kts 113°
2026-05-05 01:07 47.65461 8.58676 38823 ft 487 kts 111°
2026-05-05 01:07 47.63374 8.68243 38860 ft 488 kts 111°
2026-05-05 01:08 47.61243 8.77735 38951 ft 488 kts 112°
2026-05-05 01:08 47.59061 8.87277 38966 ft 489 kts 112°
2026-05-05 01:09 47.56860 8.96825 38960 ft 489 kts 112°
2026-05-05 01:09 47.54656 9.06356 38957 ft 489 kts 112°
2026-05-05 01:10 47.52440 9.15905 38962 ft 490 kts 112°
2026-05-05 01:10 47.50218 9.25437 38958 ft 491 kts 112°
2026-05-05 01:11 47.47984 9.34983 38964 ft 491 kts 112°
2026-05-05 01:11 47.45742 9.44518 38963 ft 492 kts 112°
2026-05-05 01:12 47.43488 9.54065 38967 ft 492 kts 112°
2026-05-05 01:12 47.41302 9.63603 38961 ft 495 kts 109°
2026-05-05 01:13 47.40127 9.73661 38963 ft 500 kts 100°
2026-05-05 01:13 47.39324 9.83871 38953 ft 500 kts 99°
2026-05-05 01:14 47.38555 9.94077 38952 ft 500 kts 99°
2026-05-05 01:14 47.37753 10.04275 38946 ft 500 kts 99°
2026-05-05 01:15 47.36922 10.14471 38948 ft 500 kts 99°
2026-05-05 01:15 47.36122 10.24142 38947 ft 500 kts 99°
2026-05-05 01:16 47.35272 10.34329 38950 ft 500 kts 99°
2026-05-05 01:16 47.34414 10.44511 38946 ft 500 kts 99°
2026-05-05 01:17 47.33545 10.54688 38948 ft 501 kts 99°
2026-05-05 01:17 47.32674 10.64813 38963 ft 501 kts 99°
2026-05-05 01:18 47.31787 10.75002 38960 ft 501 kts 99°
2026-05-05 01:18 47.30892 10.85178 38969 ft 501 kts 100°
2026-05-05 01:19 47.29989 10.95361 38960 ft 501 kts 100°
2026-05-05 01:19 47.29075 11.05546 38968 ft 501 kts 100°
2026-05-05 01:20 47.28154 11.15706 38970 ft 501 kts 100°
2026-05-05 01:20 47.27223 11.25859 38965 ft 501 kts 100°
2026-05-05 01:21 47.26282 11.36032 38969 ft 500 kts 100°
2026-05-05 01:21 47.25335 11.46171 38966 ft 500 kts 100°
2026-05-05 01:22 47.24378 11.56315 38970 ft 500 kts 100°
2026-05-05 01:22 47.23420 11.66373 38971 ft 500 kts 100°
2026-05-05 01:23 47.22446 11.76505 38981 ft 499 kts 100°
2026-05-05 01:23 47.21463 11.86624 38999 ft 499 kts 100°
2026-05-05 01:24 47.20485 11.96720 38995 ft 499 kts 100°
2026-05-05 01:24 47.19506 12.06826 38998 ft 499 kts 100°
2026-05-05 01:25 47.18519 12.16912 39003 ft 499 kts 100°
2026-05-05 01:25 47.17518 12.27025 39011 ft 499 kts 100°
2026-05-05 01:26 47.16509 12.37132 38995 ft 499 kts 100°
2026-05-05 01:26 47.15666 12.45512 39008 ft 500 kts 100°
2026-05-05 01:27 47.14473 12.57259 39014 ft 500 kts 100°
2026-05-05 01:27 47.13441 12.67343 39008 ft 499 kts 101°
2026-05-05 01:28 47.12567 12.75794 39016 ft 499 kts 101°
2026-05-05 01:28 47.11516 12.85870 39012 ft 499 kts 101°
2026-05-05 01:29 47.10464 12.95869 39019 ft 498 kts 101°
2026-05-05 01:29 47.09392 13.05978 39021 ft 498 kts 101°
2026-05-05 01:30 47.08323 13.15972 39024 ft 499 kts 101°
2026-05-05 01:30 47.07239 13.26019 39022 ft 499 kts 101°
2026-05-05 01:31 47.06142 13.36093 39021 ft 499 kts 101°
2026-05-05 01:31 47.05037 13.46154 39027 ft 500 kts 101°
2026-05-05 01:32 47.03923 13.56212 39027 ft 500 kts 101°
2026-05-05 01:32 47.02801 13.66269 39028 ft 499 kts 101°
2026-05-05 01:33 47.01672 13.76313 39030 ft 499 kts 101°
2026-05-05 01:33 47.00533 13.86351 39023 ft 499 kts 101°
2026-05-05 01:34 46.99386 13.96388 39021 ft 499 kts 101°
2026-05-05 01:34 46.98232 14.06396 39020 ft 498 kts 101°
2026-05-05 01:35 46.97071 14.16385 39021 ft 498 kts 101°
2026-05-05 01:35 46.95901 14.26379 39013 ft 498 kts 101°
2026-05-05 01:36 46.94732 14.36282 39015 ft 497 kts 101°
2026-05-05 01:36 46.93544 14.46266 39013 ft 498 kts 101°
2026-05-05 01:37 46.92349 14.56242 39014 ft 498 kts 101°
2026-05-05 01:37 46.91145 14.66206 39005 ft 498 kts 101°
2026-05-05 01:38 46.89931 14.76185 39000 ft 498 kts 101°
2026-05-05 01:38 46.88709 14.86149 38995 ft 498 kts 101°
2026-05-05 01:39 46.87477 14.96125 38988 ft 499 kts 101°
2026-05-05 01:39 46.86233 15.06120 38980 ft 501 kts 101°
2026-05-05 01:40 46.84974 15.16152 38971 ft 502 kts 101°
2026-05-05 01:40 46.83706 15.26173 38970 ft 501 kts 101°
2026-05-05 01:41 46.82444 15.36094 38965 ft 499 kts 101°
2026-05-05 01:41 46.81168 15.46049 38966 ft 499 kts 101°
2026-05-05 01:42 46.79883 15.55997 38962 ft 498 kts 101°
2026-05-05 01:42 46.78591 15.65936 38963 ft 498 kts 101°
2026-05-05 01:43 46.77291 15.75858 38961 ft 498 kts 102°
2026-05-05 01:43 46.75981 15.85788 38962 ft 498 kts 102°
2026-05-05 01:44 46.74663 15.95707 38964 ft 498 kts 102°
2026-05-05 01:44 46.73337 16.05624 38962 ft 498 kts 102°
2026-05-05 01:45 46.72002 16.15532 38964 ft 498 kts 102°
2026-05-05 01:45 46.70668 16.25364 38966 ft 498 kts 102°
2026-05-05 01:46 46.69318 16.35249 38974 ft 498 kts 102°
2026-05-05 01:46 46.67964 16.45146 38973 ft 498 kts 101°
2026-05-05 01:47 46.66794 16.55081 38977 ft 498 kts 99°
2026-05-05 01:47 46.65708 16.65042 38981 ft 498 kts 99°
2026-05-05 01:48 46.64589 16.74967 38979 ft 497 kts 99°
2026-05-05 01:48 46.63431 16.84901 38990 ft 497 kts 100°
2026-05-05 01:49 46.62259 16.94815 38990 ft 497 kts 100°
2026-05-05 01:49 46.61079 17.04714 38991 ft 497 kts 100°
2026-05-05 01:50 46.59892 17.14610 38993 ft 496 kts 100°
2026-05-05 01:50 46.58706 17.24436 38992 ft 496 kts 100°
2026-05-05 01:51 46.57504 17.34311 38990 ft 496 kts 100°
2026-05-05 01:51 46.56294 17.44183 38990 ft 496 kts 100°
2026-05-05 01:52 46.55077 17.54044 38995 ft 496 kts 100°
2026-05-05 01:52 46.53851 17.63896 38996 ft 495 kts 100°
2026-05-05 01:53 46.52617 17.73738 38998 ft 495 kts 100°
2026-05-05 01:53 46.51376 17.83573 38995 ft 495 kts 100°
2026-05-05 01:54 46.50127 17.93398 39001 ft 495 kts 100°
2026-05-05 01:54 46.48869 18.03216 39002 ft 494 kts 100°
2026-05-05 01:55 46.47604 18.13025 39002 ft 494 kts 100°
2026-05-05 01:55 46.46339 18.22765 39001 ft 494 kts 100°
2026-05-05 01:56 46.45060 18.32544 39006 ft 493 kts 101°
2026-05-05 01:56 46.43772 18.42316 39007 ft 493 kts 101°
2026-05-05 01:57 46.42478 18.52073 39012 ft 492 kts 101°
2026-05-05 01:57 46.41178 18.61810 39016 ft 492 kts 101°
2026-05-05 01:58 46.39870 18.71537 39016 ft 492 kts 101°
2026-05-05 01:58 46.38554 18.81258 39015 ft 492 kts 101°
2026-05-05 01:59 46.37230 18.90967 39017 ft 492 kts 101°
2026-05-05 01:59 46.35897 19.00689 39020 ft 492 kts 101°
2026-05-05 02:00 46.34563 19.10342 39021 ft 492 kts 101°
2026-05-05 02:00 46.33213 19.20053 39021 ft 492 kts 101°
2026-05-05 02:01 46.31855 19.29761 39019 ft 492 kts 101°
2026-05-05 02:01 46.30488 19.39467 39026 ft 493 kts 101°
2026-05-05 02:02 46.29110 19.49188 39031 ft 493 kts 101°
2026-05-05 02:02 46.27724 19.58897 39026 ft 493 kts 101°
2026-05-05 02:03 46.26330 19.68608 39028 ft 493 kts 101°
2026-05-05 02:03 46.24927 19.78316 39031 ft 494 kts 101°
2026-05-05 02:04 46.23513 19.88033 39029 ft 494 kts 101°
2026-05-05 02:04 46.22092 19.97742 39036 ft 495 kts 101°
2026-05-05 02:05 46.20661 20.07459 39032 ft 495 kts 101°
2026-05-05 02:05 46.19231 20.17110 39032 ft 495 kts 101°
2026-05-05 02:06 46.17782 20.26822 39039 ft 495 kts 101°
2026-05-05 02:06 46.16325 20.36532 39037 ft 495 kts 101°
2026-05-05 02:07 46.14392 20.46075 39040 ft 497 kts 107°
2026-05-05 02:07 46.12153 20.55506 39043 ft 497 kts 108°
2026-05-05 02:08 46.09870 20.64911 39043 ft 497 kts 108°
2026-05-05 02:08 46.07587 20.74322 39044 ft 498 kts 108°
2026-05-05 02:09 46.05303 20.83750 39048 ft 498 kts 108°
2026-05-05 02:09 46.03032 20.93100 39050 ft 498 kts 108°
2026-05-05 02:10 46.00723 21.02561 39049 ft 498 kts 108°
2026-05-05 02:10 45.98435 21.11897 39050 ft 498 kts 108°
2026-05-05 02:11 45.96125 21.21285 39069 ft 498 kts 108°
2026-05-05 02:11 45.93806 21.30668 39072 ft 498 kts 108°
2026-05-05 02:12 45.90310 21.44738 39076 ft 498 kts 108°
2026-05-05 02:13 45.87972 21.54102 39072 ft 498 kts 108°
2026-05-05 02:13 45.86024 21.61876 39073 ft 498 kts 108°
2026-05-05 02:14 45.83673 21.71221 39077 ft 498 kts 108°
2026-05-05 02:14 45.81313 21.80563 39083 ft 498 kts 108°
2026-05-05 02:15 45.78949 21.89885 39081 ft 498 kts 108°
2026-05-05 02:15 45.76575 21.99205 39088 ft 498 kts 108°
2026-05-05 02:16 45.74197 22.08507 39087 ft 497 kts 108°
2026-05-05 02:16 45.71811 22.17798 39095 ft 497 kts 108°
2026-05-05 02:17 45.69417 22.27089 39091 ft 497 kts 108°
2026-05-05 02:17 45.67017 22.36362 39101 ft 497 kts 108°
2026-05-05 02:18 45.64608 22.45628 39108 ft 497 kts 108°
2026-05-05 02:18 45.62208 22.54830 39106 ft 497 kts 108°
2026-05-05 02:19 45.59792 22.64059 39104 ft 496 kts 108°
2026-05-05 02:19 45.57367 22.73283 39115 ft 496 kts 108°
2026-05-05 02:20 45.54935 22.82494 39118 ft 495 kts 108°
2026-05-05 02:20 45.52499 22.91689 39121 ft 495 kts 108°
2026-05-05 02:21 45.50059 23.00863 39122 ft 495 kts 109°
2026-05-05 02:21 45.47612 23.10027 39113 ft 495 kts 109°
2026-05-05 02:22 45.45156 23.19188 39127 ft 495 kts 109°
2026-05-05 02:22 45.42694 23.28335 39118 ft 494 kts 109°
2026-05-05 02:23 45.40224 23.37479 39121 ft 495 kts 109°
2026-05-05 02:23 45.37763 23.46553 39118 ft 495 kts 109°
2026-05-05 02:24 45.35282 23.55676 39111 ft 495 kts 109°
2026-05-05 02:24 45.32787 23.64803 39112 ft 495 kts 109°
2026-05-05 02:25 45.30289 23.73903 39106 ft 495 kts 109°
2026-05-05 02:25 45.27740 23.82987 39104 ft 495 kts 109°
2026-05-05 02:26 45.25169 23.92053 39104 ft 495 kts 109°
2026-05-05 02:26 45.22597 24.01110 39105 ft 495 kts 110°
2026-05-05 02:27 45.20022 24.10165 39100 ft 495 kts 110°
2026-05-05 02:27 45.17444 24.19203 39098 ft 494 kts 110°
2026-05-05 02:28 45.14857 24.28242 39096 ft 494 kts 110°
2026-05-05 02:28 45.12282 24.37203 39100 ft 494 kts 110°
2026-05-05 02:29 45.09687 24.46206 39101 ft 494 kts 110°
2026-05-05 02:29 45.07083 24.55201 39100 ft 494 kts 110°
2026-05-05 02:30 45.04474 24.64187 39098 ft 494 kts 110°
2026-05-05 02:30 45.01854 24.73174 39094 ft 494 kts 110°
2026-05-05 02:31 44.99234 24.82129 39095 ft 493 kts 110°
2026-05-05 02:31 44.96607 24.91074 39091 ft 493 kts 110°
2026-05-05 02:32 44.93970 25.00024 39086 ft 493 kts 110°
2026-05-05 02:32 44.91331 25.08948 39085 ft 493 kts 110°
2026-05-05 02:33 44.88683 25.17870 39078 ft 493 kts 111°
2026-05-05 02:33 44.86042 25.26735 39071 ft 494 kts 111°
2026-05-05 02:34 44.83378 25.35651 39067 ft 494 kts 111°
2026-05-05 02:34 44.80700 25.44579 39064 ft 494 kts 111°
2026-05-05 02:35 44.78020 25.53484 39064 ft 494 kts 111°
2026-05-05 02:35 44.75330 25.62389 39064 ft 495 kts 111°
2026-05-05 02:36 44.72630 25.71296 39057 ft 495 kts 111°
2026-05-05 02:36 44.69922 25.80200 39056 ft 495 kts 111°
2026-05-05 02:37 44.67209 25.89088 39052 ft 495 kts 111°
2026-05-05 02:37 44.64492 25.97958 39050 ft 495 kts 111°
2026-05-05 02:38 44.61764 26.06836 39049 ft 495 kts 111°
2026-05-05 02:38 44.59032 26.15694 39049 ft 495 kts 111°
2026-05-05 02:39 44.56295 26.24541 39048 ft 494 kts 111°
2026-05-05 02:39 44.53504 26.33281 39048 ft 495 kts 116°
2026-05-05 02:40 44.50265 26.41793 39049 ft 495 kts 117°
2026-05-05 02:40 44.46931 26.50254 39049 ft 495 kts 117°
2026-05-05 02:41 44.43596 26.58674 39044 ft 494 kts 117°
2026-05-05 02:41 44.40266 26.67090 39048 ft 494 kts 117°
2026-05-05 02:42 44.36937 26.75495 39046 ft 494 kts 117°
2026-05-05 02:42 44.33609 26.83875 39044 ft 493 kts 117°
2026-05-05 02:43 44.30272 26.92254 39042 ft 493 kts 117°
2026-05-05 02:43 44.26934 27.00607 39044 ft 493 kts 118°
2026-05-05 02:44 44.23610 27.08901 39044 ft 493 kts 118°
2026-05-05 02:44 44.20256 27.17246 39046 ft 492 kts 118°
2026-05-05 02:45 44.16904 27.25558 39046 ft 492 kts 118°
2026-05-05 02:45 44.13548 27.33860 39046 ft 492 kts 118°
2026-05-05 02:46 44.10187 27.42148 39048 ft 491 kts 118°
2026-05-05 02:46 44.06823 27.50420 39049 ft 491 kts 118°
2026-05-05 02:47 44.03454 27.58679 39049 ft 491 kts 118°
2026-05-05 02:47 44.00082 27.66921 39049 ft 490 kts 118°
2026-05-05 02:48 43.96707 27.75147 39046 ft 490 kts 118°
2026-05-05 02:48 43.93346 27.83317 39045 ft 490 kts 118°
2026-05-05 02:49 43.89963 27.91515 39052 ft 489 kts 118°
2026-05-05 02:49 43.86578 27.99696 39051 ft 489 kts 119°
2026-05-05 02:50 43.83186 28.07869 39049 ft 489 kts 119°
2026-05-05 02:50 43.79793 28.16021 39044 ft 487 kts 118°
2026-05-05 02:51 43.76408 28.24131 39043 ft 486 kts 118°
2026-05-05 02:51 43.73025 28.32214 39043 ft 485 kts 118°
2026-05-05 02:52 43.69641 28.40277 39041 ft 484 kts 118°
2026-05-05 02:52 43.66285 28.48251 39043 ft 483 kts 118°
2026-05-05 02:53 43.62901 28.56266 39044 ft 482 kts 118°
2026-05-05 02:53 43.59520 28.64256 39050 ft 481 kts 118°
2026-05-05 02:54 43.56139 28.72222 39048 ft 481 kts 118°
2026-05-05 02:54 43.52753 28.80181 39049 ft 481 kts 118°
2026-05-05 02:55 43.49365 28.88119 39047 ft 481 kts 118°
2026-05-05 02:55 43.45966 28.96064 39046 ft 481 kts 118°
2026-05-05 02:56 43.42567 29.03985 39045 ft 481 kts 118°
2026-05-05 02:56 43.39180 29.11858 39044 ft 481 kts 118°
2026-05-05 02:57 43.36319 29.18492 39045 ft 482 kts 118°
2026-05-05 02:57 43.32313 29.27752 39040 ft 482 kts 118°
2026-05-05 02:58 43.28904 29.35613 39041 ft 482 kts 118°
2026-05-05 02:58 43.25468 29.43514 39040 ft 483 kts 118°
2026-05-05 02:59 43.22602 29.50086 39040 ft 483 kts 118°
2026-05-05 02:59 43.18566 29.59316 39028 ft 483 kts 118°
2026-05-05 03:00 43.15105 29.67209 39031 ft 483 kts 118°
2026-05-05 03:00 43.11637 29.75097 39028 ft 483 kts 118°
2026-05-05 03:01 43.08188 29.82920 39024 ft 483 kts 118°
2026-05-05 03:01 43.04707 29.90794 39023 ft 484 kts 118°
2026-05-05 03:02 43.01788 29.97383 39021 ft 484 kts 118°
2026-05-05 03:02 42.98297 30.05241 39023 ft 484 kts 118°
2026-05-05 03:03 42.94228 30.14374 39015 ft 484 kts 118°
2026-05-05 03:03 42.91318 30.20888 39016 ft 484 kts 118°
2026-05-05 03:04 42.87803 30.28738 39013 ft 484 kts 118°
2026-05-05 03:04 42.84286 30.36571 39008 ft 484 kts 118°
2026-05-05 03:05 42.80760 30.44402 39007 ft 485 kts 118°
2026-05-05 03:05 42.77230 30.52222 39003 ft 485 kts 118°
2026-05-05 03:06 42.74214 30.60366 39002 ft 480 kts 106°
2026-05-05 03:06 42.72830 30.69178 39000 ft 476 kts 96°
2026-05-05 03:07 42.71948 30.78035 38995 ft 475 kts 95°
2026-05-05 03:07 42.71099 30.86946 38993 ft 476 kts 95°
2026-05-05 03:08 42.70207 30.95871 38991 ft 476 kts 95°
2026-05-05 03:08 42.69284 31.04786 38990 ft 476 kts 95°
2026-05-05 03:09 42.68349 31.13700 38982 ft 477 kts 96°
2026-05-05 03:09 42.67407 31.22622 38980 ft 477 kts 96°
2026-05-05 03:10 42.66458 31.31555 38978 ft 478 kts 96°
2026-05-05 03:10 42.65503 31.40489 38976 ft 478 kts 96°
2026-05-05 03:11 42.64539 31.49432 38980 ft 478 kts 96°
2026-05-05 03:11 42.63568 31.58369 38976 ft 478 kts 96°
2026-05-05 03:12 42.62595 31.67260 38975 ft 479 kts 96°
2026-05-05 03:12 42.61609 31.76203 38973 ft 479 kts 96°
2026-05-05 03:13 42.60616 31.85147 38966 ft 479 kts 96°
2026-05-05 03:13 42.59615 31.94097 38971 ft 480 kts 96°
2026-05-05 03:14 42.58606 32.03056 38972 ft 480 kts 97°
2026-05-05 03:14 42.57613 32.12011 38971 ft 481 kts 97°
2026-05-05 03:15 42.56588 32.20977 38968 ft 481 kts 97°
2026-05-05 03:15 42.55555 32.29899 38974 ft 482 kts 97°
2026-05-05 03:16 42.54513 32.38871 38964 ft 482 kts 97°
2026-05-05 03:16 42.53464 32.47853 38963 ft 482 kts 97°
2026-05-05 03:17 42.52409 32.56831 38969 ft 483 kts 97°
2026-05-05 03:17 42.51345 32.65818 38966 ft 483 kts 97°
2026-05-05 03:18 42.50273 32.74813 38970 ft 483 kts 97°
2026-05-05 03:18 42.49194 32.83802 38969 ft 484 kts 97°
2026-05-05 03:19 42.47560 32.97302 38970 ft 484 kts 98°
2026-05-05 03:19 42.46460 33.06311 38970 ft 485 kts 98°
2026-05-05 03:20 42.45353 33.15323 38968 ft 485 kts 98°
2026-05-05 03:20 42.44237 33.24331 38973 ft 485 kts 98°
2026-05-05 03:21 42.43111 33.33353 38974 ft 486 kts 98°
2026-05-05 03:21 42.41979 33.42364 38976 ft 486 kts 98°
2026-05-05 03:22 42.40853 33.51311 38976 ft 485 kts 98°
2026-05-05 03:22 42.39706 33.60318 38978 ft 485 kts 98°
2026-05-05 03:23 42.38554 33.69310 38975 ft 485 kts 99°
2026-05-05 03:23 42.37396 33.78299 38973 ft 484 kts 99°
2026-05-05 03:24 42.36234 33.87267 38976 ft 484 kts 99°
2026-05-05 03:24 42.35069 33.96219 38977 ft 483 kts 99°
2026-05-05 03:25 42.33901 34.05157 38975 ft 483 kts 99°
2026-05-05 03:25 42.32727 34.14076 38973 ft 482 kts 99°
2026-05-05 03:26 42.31554 34.22935 38980 ft 482 kts 99°
2026-05-05 03:26 42.30364 34.31871 38979 ft 482 kts 99°
2026-05-05 03:27 42.29168 34.40789 38975 ft 483 kts 99°
2026-05-05 03:27 42.27962 34.49704 38978 ft 483 kts 99°
2026-05-05 03:28 42.26750 34.58630 38977 ft 483 kts 99°
2026-05-05 03:28 42.25530 34.67566 38972 ft 484 kts 99°
2026-05-05 03:29 42.24301 34.76503 38973 ft 485 kts 100°
2026-05-05 03:29 42.23064 34.85467 38973 ft 485 kts 100°
2026-05-05 03:30 42.21813 34.94424 38980 ft 486 kts 100°
2026-05-05 03:30 42.20550 35.03391 38973 ft 487 kts 100°
2026-05-05 03:31 42.19283 35.12350 38971 ft 487 kts 100°
2026-05-05 03:31 42.18008 35.21325 38972 ft 488 kts 100°
2026-05-05 03:32 42.16732 35.30251 38981 ft 488 kts 100°
2026-05-05 03:32 42.15432 35.39299 38970 ft 489 kts 101°
2026-05-05 03:33 42.14146 35.48237 38970 ft 489 kts 101°
2026-05-05 03:33 42.12840 35.57233 38969 ft 489 kts 101°
2026-05-05 03:34 42.11526 35.66221 38974 ft 490 kts 101°
2026-05-05 03:34 42.10204 35.75225 38981 ft 490 kts 101°
2026-05-05 03:35 42.08876 35.84228 38976 ft 491 kts 101°
2026-05-05 03:35 42.07538 35.93245 38973 ft 491 kts 101°
2026-05-05 03:36 42.06191 36.02265 38969 ft 492 kts 101°
2026-05-05 03:36 42.04838 36.11281 38972 ft 492 kts 102°
2026-05-05 03:37 42.03475 36.20312 38976 ft 492 kts 102°
2026-05-05 03:37 42.02106 36.29331 38968 ft 492 kts 102°
2026-05-05 03:38 42.00738 36.38293 38971 ft 492 kts 102°
2026-05-05 03:38 41.99353 36.47312 38971 ft 492 kts 102°
2026-05-05 03:39 41.97964 36.56314 38972 ft 492 kts 102°
2026-05-05 03:39 41.96566 36.65323 38969 ft 492 kts 102°
2026-05-05 03:40 41.95161 36.74327 38969 ft 492 kts 102°
2026-05-05 03:40 41.93750 36.83320 38967 ft 492 kts 102°
2026-05-05 03:41 41.92332 36.92307 38968 ft 492 kts 103°
2026-05-05 03:41 41.90906 37.01265 38967 ft 491 kts 103°
2026-05-05 03:42 41.88739 37.09902 38967 ft 490 kts 112°
2026-05-05 03:42 41.86115 37.18346 38976 ft 490 kts 114°
2026-05-05 03:43 41.83428 37.26749 38968 ft 490 kts 114°
2026-05-05 03:43 41.80752 37.35141 38974 ft 489 kts 114°
2026-05-05 03:44 41.78088 37.43528 38974 ft 489 kts 114°
2026-05-05 03:44 41.75420 37.51921 38973 ft 489 kts 114°
2026-05-05 03:45 41.72747 37.60301 38968 ft 490 kts 114°
2026-05-05 03:45 41.70066 37.68681 38968 ft 490 kts 114°
2026-05-05 03:46 41.67374 37.77070 38969 ft 490 kts 114°
2026-05-05 03:46 41.64678 37.85448 38968 ft 490 kts 114°
2026-05-05 03:47 41.61973 37.93826 38970 ft 491 kts 114°
2026-05-05 03:47 41.59277 38.02148 38967 ft 492 kts 114°
2026-05-05 03:48 41.56551 38.10542 38961 ft 493 kts 114°
2026-05-05 03:48 41.53820 38.18926 38953 ft 493 kts 114°
2026-05-05 03:49 41.51076 38.27322 38949 ft 493 kts 115°
2026-05-05 03:49 41.48325 38.35712 38949 ft 494 kts 115°
2026-05-05 03:50 41.46030 38.42694 38948 ft 494 kts 115°
2026-05-05 03:50 41.42799 38.52495 38944 ft 494 kts 115°
2026-05-05 03:51 41.40025 38.60878 38943 ft 495 kts 115°
2026-05-05 03:51 41.37715 38.67843 38945 ft 495 kts 115°
2026-05-05 03:52 41.34473 38.77584 38943 ft 496 kts 115°
2026-05-05 03:52 41.31698 38.85984 38943 ft 496 kts 115°
2026-05-05 03:53 41.29414 38.92986 38947 ft 496 kts 115°
2026-05-05 03:53 41.26663 39.01408 38948 ft 496 kts 115°
2026-05-05 03:54 41.23900 39.09815 38947 ft 497 kts 116°
2026-05-05 03:54 41.21127 39.18212 38941 ft 496 kts 116°
2026-05-05 03:55 41.18268 39.26539 38955 ft 495 kts 117°
2026-05-05 03:55 41.15334 39.34828 38938 ft 495 kts 117°
2026-05-05 03:56 41.12411 39.43096 38952 ft 495 kts 117°
2026-05-05 03:56 41.09501 39.51361 38957 ft 494 kts 117°
2026-05-05 03:57 41.06592 39.59619 38962 ft 494 kts 117°
2026-05-05 03:57 41.03679 39.67864 38966 ft 494 kts 117°
2026-05-05 03:58 41.00839 39.76154 38961 ft 495 kts 113°
2026-05-05 03:58 40.99386 39.85030 38972 ft 501 kts 96°
2026-05-05 03:59 40.99071 39.94260 38968 ft 503 kts 94°
2026-05-05 03:59 40.98914 40.03510 38956 ft 503 kts 94°
2026-05-05 04:00 40.98728 40.12774 38951 ft 503 kts 94°
2026-05-05 04:00 40.98499 40.22024 38943 ft 503 kts 94°
2026-05-05 04:01 40.98250 40.31283 38941 ft 503 kts 94°
2026-05-05 04:01 40.97988 40.40551 38960 ft 505 kts 95°
2026-05-05 04:02 40.97715 40.49831 38937 ft 504 kts 95°
2026-05-05 04:02 40.97439 40.59109 38936 ft 504 kts 95°
2026-05-05 04:03 40.97158 40.68372 38938 ft 505 kts 95°
2026-05-05 04:03 40.96870 40.77658 38937 ft 505 kts 95°
2026-05-05 04:04 40.96573 40.86943 38939 ft 505 kts 95°
2026-05-05 04:04 40.96273 40.96233 38933 ft 506 kts 95°
2026-05-05 04:05 40.95958 41.05544 38936 ft 506 kts 95°
2026-05-05 04:05 40.95635 41.14855 38937 ft 507 kts 95°
2026-05-05 04:06 40.95305 41.24167 38935 ft 508 kts 95°
2026-05-05 04:06 40.94970 41.33501 38930 ft 508 kts 95°
2026-05-05 04:07 40.94626 41.42845 38935 ft 509 kts 96°
2026-05-05 04:07 40.94272 41.52190 38934 ft 509 kts 96°
2026-05-05 04:08 40.93912 41.61542 38934 ft 510 kts 96°
2026-05-05 04:08 40.93548 41.70849 38938 ft 510 kts 96°
2026-05-05 04:09 40.93171 41.80282 38942 ft 511 kts 96°
2026-05-05 04:09 40.92786 41.89667 38945 ft 511 kts 96°
2026-05-05 04:10 40.92396 41.99008 38946 ft 512 kts 96°
2026-05-05 04:10 40.91997 42.08414 38948 ft 512 kts 96°
2026-05-05 04:11 40.91590 42.17816 38949 ft 512 kts 97°
2026-05-05 04:11 40.91174 42.27228 38954 ft 512 kts 97°
2026-05-05 04:12 40.90751 42.36629 38962 ft 513 kts 97°
2026-05-05 04:12 40.90319 42.46043 38969 ft 513 kts 97°
2026-05-05 04:13 40.89880 42.55456 38971 ft 513 kts 97°
2026-05-05 04:13 40.89433 42.64879 38976 ft 514 kts 97°
2026-05-05 04:14 40.88981 42.74243 38981 ft 514 kts 97°
2026-05-05 04:14 40.88518 42.83671 38978 ft 514 kts 97°
2026-05-05 04:15 40.88046 42.93118 38979 ft 515 kts 97°
2026-05-05 04:15 40.87566 43.02569 38980 ft 515 kts 97°
2026-05-05 04:16 40.87079 43.12015 38980 ft 516 kts 97°
2026-05-05 04:16 40.86584 43.21472 38986 ft 516 kts 98°
2026-05-05 04:17 40.86081 43.30936 38974 ft 517 kts 98°
2026-05-05 04:17 40.85569 43.40411 38976 ft 517 kts 98°
2026-05-05 04:18 40.85049 43.49888 38985 ft 517 kts 98°
2026-05-05 04:18 40.84525 43.59299 38984 ft 518 kts 98°
2026-05-05 04:19 40.83989 43.68794 38982 ft 518 kts 98°
2026-05-05 04:19 40.83586 43.78307 38991 ft 520 kts 96°
2026-05-05 04:20 40.83335 43.87853 38987 ft 520 kts 96°
2026-05-05 04:20 40.83061 43.97394 38992 ft 520 kts 96°
2026-05-05 04:21 40.82740 44.06940 38983 ft 520 kts 97°
2026-05-05 04:21 40.82401 44.16485 38981 ft 521 kts 97°
2026-05-05 04:22 40.82054 44.26037 38958 ft 521 kts 97°
2026-05-05 04:22 40.81701 44.35589 38949 ft 521 kts 97°
2026-05-05 04:23 40.81347 44.45081 38943 ft 521 kts 97°
2026-05-05 04:23 40.80985 44.54676 38928 ft 521 kts 97°
2026-05-05 04:24 40.80612 44.64171 38924 ft 521 kts 97°
2026-05-05 04:25 40.80025 44.78521 38920 ft 522 kts 97°
2026-05-05 04:25 40.79628 44.88091 38913 ft 522 kts 97°
2026-05-05 04:26 40.79225 44.97655 38916 ft 522 kts 97°
2026-05-05 04:26 40.78817 45.07224 38916 ft 522 kts 97°
2026-05-05 04:27 40.78398 45.16777 38910 ft 522 kts 98°
2026-05-05 04:27 40.77970 45.26344 38909 ft 522 kts 98°
2026-05-05 04:28 40.77536 45.35840 38905 ft 522 kts 98°
2026-05-05 04:28 40.77092 45.45407 38905 ft 522 kts 98°
2026-05-05 04:29 40.77351 45.55018 38912 ft 529 kts 87°
2026-05-05 04:29 40.78303 45.64666 38903 ft 530 kts 86°
2026-05-05 04:30 40.79338 45.74294 38897 ft 530 kts 85°
2026-05-05 04:30 40.80353 45.83936 38903 ft 531 kts 86°
2026-05-05 04:31 40.81338 45.93606 38900 ft 531 kts 86°
2026-05-05 04:31 40.82302 46.03217 38905 ft 531 kts 86°
2026-05-05 04:32 40.83263 46.12878 38904 ft 531 kts 86°
2026-05-05 04:32 40.84218 46.22547 38905 ft 531 kts 86°
2026-05-05 04:33 40.85172 46.32234 38918 ft 532 kts 88°
2026-05-05 04:33 40.86114 46.41970 38914 ft 534 kts 88°
2026-05-05 04:34 40.87049 46.51711 38916 ft 535 kts 88°
2026-05-05 04:34 40.87978 46.61466 38914 ft 535 kts 88°
2026-05-05 04:35 40.88901 46.71232 38919 ft 536 kts 88°
2026-05-05 04:35 40.89724 46.81011 38918 ft 532 kts 93°
2026-05-05 04:36 40.89376 46.90708 38933 ft 526 kts 101°
2026-05-05 04:36 40.88676 47.00284 38934 ft 526 kts 102°
2026-05-05 04:37 40.87922 47.09921 38935 ft 527 kts 102°
2026-05-05 04:37 40.87184 47.19566 38933 ft 529 kts 102°
2026-05-05 04:38 40.86453 47.29240 38932 ft 529 kts 102°
2026-05-05 04:38 40.85717 47.38937 38931 ft 530 kts 102°
2026-05-05 04:39 40.85099 47.46991 38930 ft 531 kts 102°
2026-05-05 04:39 40.84374 47.56706 38933 ft 532 kts 101°
2026-05-05 04:40 40.83789 47.66469 38936 ft 533 kts 100°
2026-05-05 04:40 40.83129 47.77824 38936 ft 533 kts 100°
2026-05-05 04:41 40.82527 47.87583 38933 ft 533 kts 101°
2026-05-05 04:41 40.82006 47.95759 38926 ft 533 kts 101°
2026-05-05 04:42 40.81372 48.05518 38928 ft 533 kts 101°
2026-05-05 04:42 40.80733 48.15269 38915 ft 533 kts 101°
2026-05-05 04:43 40.80087 48.25017 38915 ft 533 kts 101°
2026-05-05 04:43 40.79431 48.34772 38899 ft 534 kts 101°
2026-05-05 04:44 40.78767 48.44525 38906 ft 534 kts 101°
2026-05-05 04:44 40.78096 48.54276 38911 ft 534 kts 101°
2026-05-05 04:45 40.77417 48.63987 38906 ft 535 kts 101°
2026-05-05 04:45 40.76728 48.73754 38908 ft 535 kts 101°
2026-05-05 04:46 40.76030 48.83529 38914 ft 535 kts 101°
2026-05-05 04:46 40.75323 48.93305 38921 ft 536 kts 101°
2026-05-05 04:47 40.74605 49.03096 38921 ft 536 kts 101°
2026-05-05 04:47 40.73881 49.12878 38933 ft 536 kts 101°
2026-05-05 04:48 40.73149 49.22673 38934 ft 536 kts 101°
2026-05-05 04:48 40.72257 49.32403 38940 ft 533 kts 104°
2026-05-05 04:49 40.71036 49.42032 38942 ft 532 kts 105°
2026-05-05 04:49 40.69800 49.51658 38943 ft 532 kts 104°
2026-05-05 04:50 40.68624 49.61214 38946 ft 531 kts 104°
2026-05-05 04:50 40.67456 49.70820 38950 ft 530 kts 104°
2026-05-05 04:51 40.66287 49.80400 38945 ft 529 kts 104°
2026-05-05 04:51 40.65109 49.89975 38942 ft 528 kts 104°
2026-05-05 04:52 40.63924 49.99528 38942 ft 528 kts 104°
2026-05-05 04:52 40.62733 50.09061 38940 ft 528 kts 104°
2026-05-05 04:53 40.61541 50.18534 38938 ft 527 kts 104°
2026-05-05 04:53 40.60335 50.28053 38938 ft 528 kts 104°
2026-05-05 04:54 40.59119 50.37588 38940 ft 528 kts 104°
2026-05-05 04:54 40.57894 50.47127 38945 ft 529 kts 104°
2026-05-05 04:55 40.56660 50.56672 38944 ft 530 kts 104°
2026-05-05 04:55 40.55416 50.66228 38941 ft 530 kts 105°
2026-05-05 04:56 40.54163 50.75789 38941 ft 530 kts 104°
2026-05-05 04:56 40.52904 50.85336 38945 ft 530 kts 104°
2026-05-05 04:57 40.51649 50.94882 38944 ft 531 kts 104°
2026-05-05 04:57 40.50720 51.04525 38940 ft 533 kts 101°
2026-05-05 04:58 40.49941 51.14209 38940 ft 533 kts 101°
2026-05-05 04:58 40.49108 51.23877 38937 ft 532 kts 101°
2026-05-05 04:59 40.48221 51.33528 38937 ft 532 kts 101°
2026-05-05 04:59 40.47309 51.43184 38932 ft 532 kts 101°
2026-05-05 05:00 40.46137 51.52755 38933 ft 529 kts 107°
2026-05-05 05:00 40.44491 51.62086 38930 ft 528 kts 108°
2026-05-05 05:01 40.42755 51.71444 38932 ft 528 kts 108°
2026-05-05 05:01 40.41010 51.80814 38918 ft 528 kts 108°
2026-05-05 05:02 40.39272 51.90180 38924 ft 529 kts 108°
2026-05-05 05:02 40.37529 51.99555 38920 ft 529 kts 108°
2026-05-05 05:03 40.35780 52.08927 38916 ft 529 kts 108°
2026-05-05 05:03 40.34023 52.18293 38908 ft 529 kts 108°
2026-05-05 05:04 40.32255 52.27665 38899 ft 530 kts 108°
2026-05-05 05:04 40.30479 52.37033 38886 ft 530 kts 108°
2026-05-05 05:05 40.28695 52.46402 38881 ft 530 kts 108°
2026-05-05 05:05 40.26903 52.55773 38879 ft 530 kts 108°
2026-05-05 05:06 40.25101 52.65138 38873 ft 530 kts 108°
2026-05-05 05:06 40.23297 52.74511 38866 ft 530 kts 108°
2026-05-05 05:07 40.21494 52.83849 38859 ft 530 kts 109°
2026-05-05 05:07 40.19688 52.93149 38879 ft 530 kts 109°
2026-05-05 05:08 40.17866 53.02480 38885 ft 529 kts 109°
2026-05-05 05:08 40.16037 53.11804 38878 ft 529 kts 109°
2026-05-05 05:09 40.14202 53.21115 38876 ft 529 kts 109°
2026-05-05 05:09 40.12359 53.30422 38870 ft 529 kts 109°
2026-05-05 05:10 40.10505 53.39740 38867 ft 530 kts 109°
2026-05-05 05:10 40.08644 53.49054 38860 ft 531 kts 109°
2026-05-05 05:11 40.06772 53.58382 38863 ft 531 kts 109°
2026-05-05 05:11 40.04890 53.67714 38862 ft 532 kts 109°
2026-05-05 05:12 40.03009 53.77002 38861 ft 533 kts 109°
2026-05-05 05:12 40.01104 53.86370 38862 ft 534 kts 109°
2026-05-05 05:13 39.99192 53.95727 38869 ft 534 kts 109°
2026-05-05 05:13 39.97267 54.05103 38872 ft 535 kts 109°
2026-05-05 05:14 39.95336 54.14469 38865 ft 535 kts 109°
2026-05-05 05:14 39.93397 54.23826 38865 ft 536 kts 109°
2026-05-05 05:15 39.91460 54.33141 38863 ft 536 kts 109°
2026-05-05 05:15 39.89505 54.42496 38862 ft 536 kts 109°
2026-05-05 05:16 39.87540 54.51848 38857 ft 535 kts 109°
2026-05-05 05:16 39.85553 54.61192 38855 ft 535 kts 109°
2026-05-05 05:17 39.83559 54.70523 38854 ft 535 kts 109°
2026-05-05 05:17 39.81564 54.79847 38854 ft 535 kts 109°
2026-05-05 05:18 39.79575 54.89168 38853 ft 535 kts 109°
2026-05-05 05:18 39.77579 54.98477 38850 ft 534 kts 109°
2026-05-05 05:19 39.75577 55.07777 38841 ft 534 kts 109°
2026-05-05 05:19 39.73567 55.17064 38843 ft 534 kts 109°
2026-05-05 05:20 39.71552 55.26342 38842 ft 534 kts 109°
2026-05-05 05:20 39.69528 55.35619 38838 ft 534 kts 109°
2026-05-05 05:21 39.67509 55.44839 38841 ft 534 kts 109°
2026-05-05 05:21 39.65460 55.54098 38841 ft 534 kts 109°
2026-05-05 05:22 39.63400 55.63366 38841 ft 534 kts 109°
2026-05-05 05:22 39.61336 55.72625 38842 ft 535 kts 109°
2026-05-05 05:23 39.59265 55.81888 38844 ft 535 kts 109°
2026-05-05 05:23 39.57186 55.91149 38838 ft 535 kts 109°
2026-05-05 05:24 39.55113 56.00428 38850 ft 536 kts 109°
2026-05-05 05:24 39.53037 56.09706 38852 ft 536 kts 109°
2026-05-05 05:25 39.50955 56.18963 38846 ft 536 kts 109°
2026-05-05 05:25 39.48862 56.28229 38843 ft 536 kts 109°
2026-05-05 05:26 39.46762 56.37489 38848 ft 536 kts 109°
2026-05-05 05:26 39.44651 56.46755 38847 ft 536 kts 109°
2026-05-05 05:27 39.42551 56.55936 38843 ft 536 kts 109°
2026-05-05 05:27 39.39363 56.69806 38846 ft 536 kts 109°
2026-05-05 05:28 39.37591 56.77477 38845 ft 536 kts 109°
2026-05-05 05:28 39.35023 56.88223 38846 ft 535 kts 111°
2026-05-05 05:29 39.33053 56.95792 38843 ft 534 kts 112°
2026-05-05 05:29 39.30664 57.04876 38845 ft 534 kts 112°
2026-05-05 05:30 39.28291 57.13986 38844 ft 535 kts 111°
2026-05-05 05:30 39.25933 57.23085 38844 ft 535 kts 111°
2026-05-05 05:31 39.23568 57.32193 38844 ft 535 kts 111°
2026-05-05 05:31 39.21211 57.41228 38848 ft 535 kts 111°
2026-05-05 05:32 39.18828 57.50329 38838 ft 535 kts 111°
2026-05-05 05:32 39.16440 57.59412 38843 ft 535 kts 111°
2026-05-05 05:33 39.14041 57.68501 38844 ft 535 kts 111°
2026-05-05 05:33 39.11636 57.77582 38841 ft 535 kts 111°
2026-05-05 05:34 39.09244 57.86587 38849 ft 535 kts 111°
2026-05-05 05:34 39.06823 57.95660 38847 ft 536 kts 111°
2026-05-05 05:35 39.04397 58.04724 38842 ft 536 kts 112°
2026-05-05 05:35 39.01961 58.13793 38846 ft 536 kts 112°
2026-05-05 05:36 38.99519 58.22851 38847 ft 536 kts 112°
2026-05-05 05:36 38.97067 58.31915 38850 ft 537 kts 112°
2026-05-05 05:37 38.94607 58.40973 38849 ft 537 kts 112°
2026-05-05 05:37 38.92154 58.49979 38849 ft 537 kts 112°
2026-05-05 05:38 38.89678 58.59035 38847 ft 538 kts 112°
2026-05-05 05:38 38.86713 58.67795 38850 ft 535 kts 119°
2026-05-05 05:39 38.83389 58.76351 38852 ft 535 kts 120°
2026-05-05 05:39 38.80015 58.84865 38857 ft 535 kts 120°
2026-05-05 05:40 38.76642 58.93385 38859 ft 536 kts 120°
2026-05-05 05:40 38.73274 59.01913 38861 ft 536 kts 120°
2026-05-05 05:41 38.69903 59.10433 38865 ft 537 kts 120°
2026-05-05 05:41 38.66520 59.18962 38868 ft 537 kts 120°
2026-05-05 05:42 38.63130 59.27484 38865 ft 538 kts 120°
2026-05-05 05:42 38.59578 59.35877 38870 ft 535 kts 127°
2026-05-05 05:43 38.54907 59.43174 38870 ft 529 kts 136°
2026-05-05 05:43 38.49936 59.50097 38869 ft 529 kts 137°
2026-05-05 05:44 38.44923 59.56978 38873 ft 529 kts 137°
2026-05-05 05:44 38.39927 59.63882 38873 ft 530 kts 137°
2026-05-05 05:45 38.34939 59.70799 38876 ft 530 kts 137°
2026-05-05 05:45 38.29981 59.77672 38876 ft 530 kts 137°
2026-05-05 05:46 38.24978 59.84589 38874 ft 530 kts 137°
2026-05-05 05:46 38.19972 59.91491 38879 ft 531 kts 137°
2026-05-05 05:47 38.14959 59.98387 38877 ft 531 kts 137°
2026-05-05 05:47 38.09939 60.05279 38876 ft 531 kts 137°
2026-05-05 05:48 38.04910 60.12168 38880 ft 532 kts 137°
2026-05-05 05:48 37.99874 60.19053 38878 ft 532 kts 137°
2026-05-05 05:49 37.94852 60.25964 38882 ft 533 kts 137°
2026-05-05 05:49 37.89834 60.32892 38881 ft 534 kts 137°
2026-05-05 05:50 37.84805 60.39814 38883 ft 534 kts 137°
2026-05-05 05:50 37.79798 60.46682 38883 ft 534 kts 137°
2026-05-05 05:51 37.74745 60.53595 38888 ft 535 kts 137°
2026-05-05 05:51 37.69603 60.60367 38886 ft 534 kts 140°
2026-05-05 05:52 37.64348 60.66991 38891 ft 534 kts 140°
2026-05-05 05:52 37.59097 60.73618 38896 ft 534 kts 140°
2026-05-05 05:53 37.53864 60.80269 38903 ft 534 kts 139°
2026-05-05 05:53 37.48671 60.86880 38903 ft 535 kts 139°
2026-05-05 05:54 37.43426 60.93544 38907 ft 535 kts 139°
2026-05-05 05:54 37.38178 61.00195 38923 ft 536 kts 140°
2026-05-05 05:55 37.32925 61.06836 38916 ft 536 kts 140°
2026-05-05 05:55 37.27663 61.13475 38921 ft 536 kts 140°
2026-05-05 05:56 37.22390 61.20113 38924 ft 536 kts 140°
2026-05-05 05:56 37.17115 61.26746 38922 ft 537 kts 140°
2026-05-05 05:57 37.11829 61.33362 38924 ft 537 kts 140°
2026-05-05 05:57 37.06534 61.39969 38930 ft 537 kts 140°
2026-05-05 05:58 37.01238 61.46570 38926 ft 538 kts 140°
2026-05-05 05:58 36.95966 61.53129 38929 ft 538 kts 140°
2026-05-05 05:59 36.90647 61.59734 38926 ft 539 kts 140°
2026-05-05 05:59 36.85325 61.66337 38930 ft 539 kts 140°
2026-05-05 06:00 36.79994 61.72935 38926 ft 540 kts 140°
2026-05-05 06:00 36.74657 61.79522 38931 ft 540 kts 140°
2026-05-05 06:01 36.69304 61.86118 38930 ft 541 kts 140°
2026-05-05 06:01 36.63949 61.92705 38937 ft 542 kts 140°
2026-05-05 06:02 36.58581 61.99294 38946 ft 542 kts 140°
2026-05-05 06:02 36.53203 62.05882 38942 ft 542 kts 140°
2026-05-05 06:03 36.47860 62.12414 38944 ft 543 kts 140°
2026-05-05 06:03 36.42472 62.18986 38951 ft 543 kts 140°
2026-05-05 06:04 36.37078 62.25552 38957 ft 543 kts 140°
2026-05-05 06:04 36.31674 62.32118 38956 ft 543 kts 140°
2026-05-05 06:05 36.26272 62.38667 38956 ft 544 kts 140°
2026-05-05 06:05 36.20854 62.45222 38970 ft 544 kts 141°
2026-05-05 06:06 36.15437 62.51763 38963 ft 544 kts 141°
2026-05-05 06:06 36.10005 62.58308 38969 ft 545 kts 141°
2026-05-05 06:07 36.04573 62.64840 38969 ft 545 kts 141°
2026-05-05 06:07 35.99126 62.71377 38975 ft 545 kts 141°
2026-05-05 06:08 35.93676 62.77904 38974 ft 546 kts 141°
2026-05-05 06:08 35.88225 62.84420 38974 ft 546 kts 141°
2026-05-05 06:09 35.82799 62.90892 38976 ft 547 kts 141°
2026-05-05 06:09 35.77317 62.97417 38977 ft 547 kts 141°
2026-05-05 06:10 35.71832 63.03934 38975 ft 548 kts 141°
2026-05-05 06:10 35.66346 63.10439 38977 ft 548 kts 141°
2026-05-05 06:11 35.60848 63.16944 38983 ft 549 kts 141°
2026-05-05 06:11 35.55735 63.24006 38988 ft 555 kts 132°
2026-05-05 06:12 35.51020 63.31470 38990 ft 557 kts 131°
2026-05-05 06:12 35.46332 63.39027 38994 ft 557 kts 131°
2026-05-05 06:13 35.41620 63.46576 38997 ft 557 kts 131°
2026-05-05 06:13 35.36885 63.54102 39007 ft 558 kts 131°
2026-05-05 06:14 35.32938 63.60351 39014 ft 558 kts 131°
2026-05-05 06:14 35.27382 63.69146 39028 ft 559 kts 131°
2026-05-05 06:15 35.22636 63.76682 39038 ft 560 kts 131°
2026-05-05 06:15 35.17872 63.84231 39051 ft 561 kts 131°
2026-05-05 06:16 35.13108 63.91760 39054 ft 560 kts 131°
2026-05-05 06:16 35.08332 63.99290 39066 ft 561 kts 131°
2026-05-05 06:17 35.04357 64.05547 39065 ft 561 kts 131°
2026-05-05 06:17 34.98794 64.14277 39076 ft 561 kts 131°
2026-05-05 06:18 34.93990 64.21803 39083 ft 563 kts 131°
2026-05-05 06:18 34.89956 64.28112 39091 ft 563 kts 131°
2026-05-05 06:19 34.85168 64.35586 39101 ft 564 kts 131°
2026-05-05 06:19 34.80343 64.43102 39106 ft 563 kts 131°
2026-05-05 06:20 34.75505 64.50619 39113 ft 564 kts 131°
2026-05-05 06:20 34.70658 64.58137 39114 ft 566 kts 131°
2026-05-05 06:21 34.65797 64.65659 39120 ft 567 kts 131°
2026-05-05 06:21 34.60922 64.73185 39122 ft 567 kts 131°
2026-05-05 06:22 34.56036 64.80714 39123 ft 567 kts 131°
2026-05-05 06:22 34.51152 64.88225 39120 ft 567 kts 131°
2026-05-05 06:23 34.46257 64.95740 39119 ft 567 kts 131°
2026-05-05 06:23 34.41375 65.03192 39122 ft 568 kts 131°
2026-05-05 06:24 34.36420 65.10733 39122 ft 569 kts 131°
2026-05-05 06:24 34.31518 65.18181 39125 ft 570 kts 131°
2026-05-05 06:25 34.26578 65.25677 39128 ft 569 kts 131°
2026-05-05 06:25 34.21641 65.33156 39123 ft 570 kts 131°
2026-05-05 06:26 34.16695 65.40635 39122 ft 570 kts 131°
2026-05-05 06:26 34.11732 65.48122 39118 ft 570 kts 131°
2026-05-05 06:27 34.04283 65.59334 39117 ft 571 kts 131°
2026-05-05 06:28 33.99319 65.66805 39110 ft 572 kts 131°
2026-05-05 06:28 33.94372 65.74232 39105 ft 572 kts 131°
2026-05-05 06:29 33.89389 65.81704 39096 ft 572 kts 131°
2026-05-05 06:29 33.84400 65.89165 39085 ft 572 kts 131°
2026-05-05 06:30 33.79408 65.96616 39068 ft 572 kts 132°
2026-05-05 06:30 33.74406 66.04059 39056 ft 573 kts 132°
2026-05-05 06:31 33.69382 66.11518 39059 ft 574 kts 132°
2026-05-05 06:31 33.64389 66.18924 39052 ft 573 kts 132°
2026-05-05 06:32 33.59378 66.26346 39040 ft 572 kts 132°
2026-05-05 06:32 33.54361 66.33758 39042 ft 572 kts 132°
2026-05-05 06:33 33.49331 66.41169 39040 ft 574 kts 132°
2026-05-05 06:33 33.44285 66.48595 39027 ft 574 kts 132°
2026-05-05 06:34 33.39228 66.55989 39046 ft 574 kts 132°
2026-05-05 06:34 33.34160 66.63364 39058 ft 573 kts 132°
2026-05-05 06:35 33.29135 66.70675 39072 ft 573 kts 132°
2026-05-05 06:35 33.24061 66.78043 39071 ft 573 kts 132°
2026-05-05 06:36 33.18984 66.85403 39092 ft 575 kts 132°
2026-05-05 06:36 33.13892 66.92770 39091 ft 575 kts 132°
2026-05-05 06:37 33.08794 67.00133 39085 ft 575 kts 132°
2026-05-05 06:37 33.03691 67.07487 39074 ft 575 kts 132°
2026-05-05 06:38 32.98592 67.14820 39052 ft 575 kts 132°
2026-05-05 06:38 32.93477 67.22160 39046 ft 575 kts 132°
2026-05-05 06:39 32.88357 67.29493 39033 ft 576 kts 132°
2026-05-05 06:39 32.83232 67.36815 39019 ft 576 kts 132°
2026-05-05 06:40 32.78106 67.44132 39014 ft 575 kts 132°
2026-05-05 06:40 32.72950 67.51318 39007 ft 575 kts 134°
2026-05-05 06:41 32.67602 67.58415 39005 ft 576 kts 134°
2026-05-05 06:41 32.62249 67.65497 38998 ft 577 kts 134°
2026-05-05 06:42 32.56911 67.72612 38992 ft 577 kts 134°
2026-05-05 06:42 32.51586 67.79731 38988 ft 577 kts 134°
2026-05-05 06:43 32.46331 67.86910 38987 ft 577 kts 131°
2026-05-05 06:43 32.41255 67.94290 38991 ft 577 kts 131°
2026-05-05 06:44 32.36235 68.01618 38994 ft 577 kts 131°
2026-05-05 06:44 32.31140 68.08955 38998 ft 577 kts 131°
2026-05-05 06:45 32.26019 68.16265 38997 ft 577 kts 131°
2026-05-05 06:45 32.20896 68.23558 38999 ft 577 kts 131°
2026-05-05 06:46 32.15769 68.30847 39004 ft 577 kts 131°
2026-05-05 06:46 32.10644 68.38123 39005 ft 577 kts 131°
2026-05-05 06:47 32.05506 68.45404 39008 ft 577 kts 131°
2026-05-05 06:47 32.00402 68.52625 39010 ft 577 kts 131°
2026-05-05 06:48 31.95265 68.59875 39014 ft 576 kts 131°
2026-05-05 06:48 31.90122 68.67120 39007 ft 576 kts 131°
2026-05-05 06:49 31.84975 68.74358 39006 ft 576 kts 131°
2026-05-05 06:49 31.79828 68.81582 39004 ft 576 kts 131°
2026-05-05 06:50 31.74675 68.88801 39009 ft 576 kts 131°
2026-05-05 06:50 31.69521 68.96009 39005 ft 576 kts 131°
2026-05-05 06:51 31.64381 69.03227 39000 ft 576 kts 130°
2026-05-05 06:51 31.59412 69.10604 38999 ft 577 kts 129°
2026-05-05 06:52 31.54490 69.18031 38995 ft 577 kts 129°
2026-05-05 06:52 31.49525 69.25440 38992 ft 577 kts 129°
2026-05-05 06:53 31.44541 69.32810 38987 ft 577 kts 129°
2026-05-05 06:53 31.39552 69.40157 38988 ft 577 kts 129°
2026-05-05 06:54 31.34289 69.47125 38993 ft 574 kts 141°
2026-05-05 06:54 31.28209 69.53151 38990 ft 572 kts 144°
2026-05-05 06:55 31.22009 69.58965 38994 ft 571 kts 144°
2026-05-05 06:55 31.15800 69.64766 38997 ft 571 kts 144°
2026-05-05 06:56 31.09605 69.70597 39004 ft 572 kts 144°
2026-05-05 06:56 31.03415 69.76437 39009 ft 572 kts 144°
2026-05-05 06:57 30.97222 69.82271 39009 ft 572 kts 144°
2026-05-05 06:57 30.91030 69.88092 39010 ft 572 kts 144°
2026-05-05 06:58 30.84832 69.93908 39006 ft 572 kts 144°
2026-05-05 06:58 30.78628 69.99720 39014 ft 572 kts 144°
2026-05-05 06:59 30.72480 70.05471 39005 ft 571 kts 144°
2026-05-05 06:59 30.66282 70.11257 39000 ft 571 kts 144°
2026-05-05 07:00 30.60096 70.17018 38997 ft 570 kts 144°
2026-05-05 07:00 30.53901 70.22782 38990 ft 571 kts 144°
2026-05-05 07:01 30.47709 70.28535 38983 ft 570 kts 144°
2026-05-05 07:01 30.41520 70.34274 38972 ft 570 kts 144°
2026-05-05 07:02 30.35313 70.40019 38974 ft 570 kts 144°
2026-05-05 07:02 30.29119 70.45744 38958 ft 570 kts 144°
2026-05-05 07:03 30.22926 70.51456 38953 ft 569 kts 144°
2026-05-05 07:03 30.16766 70.57206 38939 ft 569 kts 143°
2026-05-05 07:04 30.10684 70.62989 38937 ft 569 kts 143°
2026-05-05 07:04 30.04572 70.68791 38936 ft 569 kts 143°
2026-05-05 07:05 29.98454 70.74568 38934 ft 568 kts 143°
2026-05-05 07:05 29.92329 70.80330 38930 ft 568 kts 143°
2026-05-05 07:06 29.86205 70.86082 38927 ft 568 kts 143°
2026-05-05 07:06 29.80077 70.91830 38924 ft 567 kts 143°
2026-05-05 07:07 29.73961 70.97558 38920 ft 567 kts 143°
2026-05-05 07:07 29.67846 71.03275 38921 ft 567 kts 143°
2026-05-05 07:08 29.61858 71.09175 38917 ft 567 kts 140°
2026-05-05 07:08 29.56991 71.14246 38915 ft 567 kts 140°
2026-05-05 07:09 29.51140 71.20326 38913 ft 567 kts 140°
2026-05-05 07:09 29.45252 71.26355 38909 ft 567 kts 141°
2026-05-05 07:10 29.39350 71.32349 38910 ft 566 kts 141°
2026-05-05 07:10 29.33456 71.38322 38905 ft 566 kts 141°
2026-05-05 07:11 29.27549 71.44306 38903 ft 566 kts 141°
2026-05-05 07:11 29.21673 71.50310 38900 ft 566 kts 140°
2026-05-05 07:12 29.15807 71.56316 38895 ft 566 kts 140°
2026-05-05 07:12 29.09941 71.62305 38893 ft 565 kts 140°
2026-05-05 07:13 29.04066 71.68286 38888 ft 565 kts 141°
2026-05-05 07:13 28.98189 71.74258 38886 ft 565 kts 141°
2026-05-05 07:14 28.92345 71.80186 38883 ft 566 kts 141°
2026-05-05 07:14 28.86461 71.86147 38873 ft 566 kts 141°
2026-05-05 07:15 28.80574 71.92102 38872 ft 566 kts 141°
2026-05-05 07:15 28.74686 71.98048 38871 ft 566 kts 141°
2026-05-05 07:16 28.68786 72.03997 38867 ft 566 kts 141°
2026-05-05 07:16 28.62885 72.09938 38864 ft 566 kts 141°
2026-05-05 07:17 28.56992 72.15862 38860 ft 566 kts 141°
2026-05-05 07:17 28.51102 72.21795 38852 ft 566 kts 140°
2026-05-05 07:17 28.48410 72.25066 38856 ft 569 kts 129°
2026-05-05 07:18 28.46204 72.28801 38867 ft 569 kts 120°
2026-05-05 07:18 28.42413 72.36690 38861 ft 568 kts 117°
2026-05-05 07:19 28.38833 72.44618 38856 ft 568 kts 116°
2026-05-05 07:19 28.35208 72.52583 38858 ft 568 kts 117°
2026-05-05 07:20 28.31532 72.60529 38856 ft 568 kts 117°
2026-05-05 07:20 28.27839 72.68453 38858 ft 567 kts 117°
2026-05-05 07:21 28.24143 72.76363 38858 ft 567 kts 117°
2026-05-05 07:21 28.20446 72.84270 38855 ft 567 kts 117°
2026-05-05 07:22 28.16750 72.92164 38853 ft 567 kts 117°
2026-05-05 07:22 28.13050 73.00051 38852 ft 567 kts 117°
2026-05-05 07:23 28.09347 73.07929 38856 ft 567 kts 117°
2026-05-05 07:23 28.05642 73.15796 38856 ft 566 kts 118°
2026-05-05 07:24 28.01925 73.23671 38858 ft 566 kts 118°
2026-05-05 07:24 27.98212 73.31527 38857 ft 566 kts 118°
2026-05-05 07:25 27.94496 73.39370 38859 ft 566 kts 118°
2026-05-05 07:25 27.90800 73.47161 38861 ft 566 kts 118°
2026-05-05 07:26 27.87073 73.55000 38864 ft 566 kts 118°
2026-05-05 07:26 27.83345 73.62825 38864 ft 565 kts 118°
2026-05-05 07:27 27.79613 73.70646 38864 ft 565 kts 118°
2026-05-05 07:27 27.75883 73.78448 38869 ft 565 kts 118°
2026-05-05 07:28 27.72149 73.86268 38872 ft 565 kts 117°
2026-05-05 07:28 27.68611 73.94173 38874 ft 564 kts 116°
2026-05-05 07:29 27.65155 74.02112 38878 ft 564 kts 116°
2026-05-05 07:29 27.61668 74.10032 38876 ft 564 kts 116°
2026-05-05 07:30 27.58151 74.17929 38884 ft 563 kts 116°
2026-05-05 07:30 27.52855 74.29759 38886 ft 563 kts 116°
2026-05-05 07:31 27.49321 74.37639 38891 ft 563 kts 116°
2026-05-05 07:31 27.45789 74.45504 38890 ft 563 kts 117°
2026-05-05 07:32 27.42247 74.53376 38893 ft 563 kts 117°
2026-05-05 07:32 27.38708 74.61228 38893 ft 563 kts 117°
2026-05-05 07:33 27.35165 74.69073 38900 ft 563 kts 117°
2026-05-05 07:33 27.31618 74.76912 38897 ft 562 kts 117°
2026-05-05 07:34 27.28085 74.84703 38906 ft 562 kts 117°
2026-05-05 07:34 27.24534 74.92523 38909 ft 562 kts 117°
2026-05-05 07:35 27.20974 75.00347 38913 ft 562 kts 117°
2026-05-05 07:35 27.17418 75.08149 38925 ft 561 kts 117°
2026-05-05 07:36 27.13854 75.15951 38930 ft 561 kts 117°
2026-05-05 07:36 27.10294 75.23732 38922 ft 561 kts 117°
2026-05-05 07:37 27.06727 75.31512 38924 ft 560 kts 117°
2026-05-05 07:37 27.03161 75.39281 38928 ft 560 kts 117°
2026-05-05 07:38 26.99610 75.46993 38932 ft 560 kts 117°
2026-05-05 07:38 26.96032 75.54748 38934 ft 560 kts 118°
2026-05-05 07:39 26.92448 75.62504 38940 ft 559 kts 118°
2026-05-05 07:39 26.88868 75.70239 38940 ft 559 kts 118°
2026-05-05 07:40 26.85284 75.77970 38936 ft 559 kts 118°
2026-05-05 07:40 26.81693 75.85693 38937 ft 559 kts 118°
2026-05-05 07:41 26.77898 75.93293 38939 ft 559 kts 121°
2026-05-05 07:41 26.73984 76.00802 38941 ft 558 kts 121°
2026-05-05 07:42 26.70091 76.08329 38942 ft 558 kts 121°
2026-05-05 07:42 26.66236 76.15856 38943 ft 558 kts 121°
2026-05-05 07:43 26.62388 76.23385 38948 ft 557 kts 121°
2026-05-05 07:43 26.58537 76.30905 38950 ft 557 kts 121°
2026-05-05 07:44 26.54710 76.38361 38949 ft 557 kts 121°
2026-05-05 07:44 26.50856 76.45853 38947 ft 556 kts 121°
2026-05-05 07:45 26.46997 76.53342 38943 ft 556 kts 121°
2026-05-05 07:45 26.43233 76.60873 38944 ft 556 kts 119°
2026-05-05 07:46 26.39635 76.68520 38948 ft 556 kts 118°
2026-05-05 07:46 26.36047 76.76142 38946 ft 555 kts 119°
2026-05-05 07:47 26.32422 76.83741 38947 ft 555 kts 119°
2026-05-05 07:47 26.28782 76.91318 38946 ft 554 kts 119°
2026-05-05 07:48 26.25138 76.98886 38943 ft 554 kts 119°
2026-05-05 07:48 26.21493 77.06446 38943 ft 553 kts 119°
2026-05-05 07:49 26.17848 77.13995 38943 ft 553 kts 120°
2026-05-05 07:49 26.14231 77.21476 38944 ft 553 kts 120°
2026-05-05 07:50 26.10578 77.28999 38943 ft 552 kts 120°
2026-05-05 07:50 26.06909 77.36511 38945 ft 552 kts 120°
2026-05-05 07:51 26.03243 77.44007 38946 ft 552 kts 120°
2026-05-05 07:51 25.99573 77.51503 38943 ft 552 kts 120°
2026-05-05 07:52 25.95907 77.58983 38942 ft 551 kts 120°
2026-05-05 07:52 25.92234 77.66463 38943 ft 551 kts 120°
2026-05-05 07:53 25.88559 77.73934 38947 ft 551 kts 120°
2026-05-05 07:53 25.84879 77.81404 38946 ft 551 kts 120°
2026-05-05 07:54 25.81199 77.88861 38942 ft 551 kts 120°
2026-05-05 07:54 25.77542 77.96261 38942 ft 550 kts 120°
2026-05-05 07:55 25.73856 78.03706 38943 ft 550 kts 121°
2026-05-05 07:55 25.70173 78.11133 38936 ft 550 kts 121°
2026-05-05 07:56 25.67082 78.17356 38939 ft 549 kts 121°
2026-05-05 07:56 25.62800 78.25964 38941 ft 549 kts 121°
2026-05-05 07:57 25.59121 78.33366 38937 ft 548 kts 120°
2026-05-05 07:57 25.56093 78.39532 38934 ft 549 kts 120°
2026-05-05 07:58 25.52449 78.46969 38935 ft 549 kts 120°
2026-05-05 07:58 25.48802 78.54385 38932 ft 549 kts 120°
2026-05-05 07:59 25.45145 78.61801 38929 ft 549 kts 120°
2026-05-05 07:59 25.41484 78.69209 38905 ft 549 kts 120°
2026-05-05 08:00 25.37818 78.76614 38905 ft 548 kts 121°
2026-05-05 08:00 25.34153 78.84007 38904 ft 548 kts 121°
2026-05-05 08:01 25.30516 78.91333 38906 ft 547 kts 121°
2026-05-05 08:01 25.26852 78.98701 38900 ft 547 kts 121°
2026-05-05 08:02 25.23186 79.06060 38894 ft 546 kts 121°
2026-05-05 08:02 25.19524 79.13399 38888 ft 546 kts 121°
2026-05-05 08:03 25.15858 79.20733 38883 ft 545 kts 121°
2026-05-05 08:03 25.12191 79.28061 38878 ft 545 kts 121°
2026-05-05 08:04 25.08523 79.35378 38871 ft 545 kts 121°
2026-05-05 08:04 25.04851 79.42691 38867 ft 545 kts 121°
2026-05-05 08:05 25.01179 79.49994 38863 ft 544 kts 121°
2026-05-05 08:05 24.97503 79.57292 38858 ft 544 kts 121°
2026-05-05 08:06 24.93827 79.64578 38865 ft 544 kts 121°
2026-05-05 08:06 24.90154 79.71849 38870 ft 543 kts 121°
2026-05-05 08:07 24.86475 79.79117 38878 ft 543 kts 121°
2026-05-05 08:07 24.82792 79.86386 38853 ft 543 kts 122°
2026-05-05 08:08 24.78729 79.93351 38863 ft 539 kts 131°
2026-05-05 08:08 24.74011 79.99766 38854 ft 538 kts 133°
2026-05-05 08:09 24.69239 80.06023 38852 ft 537 kts 133°
2026-05-05 08:09 24.64443 80.12311 38854 ft 537 kts 133°
2026-05-05 08:10 24.59657 80.18617 38850 ft 537 kts 133°
2026-05-05 08:10 24.54878 80.24924 38855 ft 536 kts 133°
2026-05-05 08:11 24.50103 80.31219 38855 ft 536 kts 133°
2026-05-05 08:11 24.45322 80.37511 38856 ft 536 kts 133°
2026-05-05 08:12 24.40540 80.43795 38858 ft 536 kts 133°
2026-05-05 08:12 24.35760 80.50069 38861 ft 536 kts 133°
2026-05-05 08:13 24.30976 80.56337 38862 ft 536 kts 133°
2026-05-05 08:13 24.26197 80.62595 38867 ft 535 kts 133°
2026-05-05 08:14 24.21420 80.68843 38864 ft 535 kts 134°
2026-05-05 08:14 24.16638 80.75087 38866 ft 534 kts 134°
2026-05-05 08:15 24.11895 80.81270 38866 ft 534 kts 134°
2026-05-05 08:15 24.07117 80.87494 38864 ft 533 kts 134°
2026-05-05 08:16 24.02348 80.93697 38874 ft 533 kts 134°
2026-05-05 08:16 23.97573 80.99900 38875 ft 532 kts 134°
2026-05-05 08:17 23.92796 81.06096 38875 ft 532 kts 134°
2026-05-05 08:17 23.88028 81.12275 38872 ft 532 kts 134°
2026-05-05 08:18 23.83256 81.18452 38870 ft 532 kts 134°
2026-05-05 08:18 23.78483 81.24620 38874 ft 531 kts 134°
2026-05-05 08:19 23.73713 81.30778 38868 ft 531 kts 134°
2026-05-05 08:19 23.68942 81.36930 38868 ft 531 kts 134°
2026-05-05 08:20 23.64200 81.43036 38872 ft 530 kts 134°
2026-05-05 08:20 23.59429 81.49172 38874 ft 530 kts 134°
2026-05-05 08:21 23.54660 81.55298 38877 ft 530 kts 134°
2026-05-05 08:21 23.49884 81.61425 38879 ft 530 kts 134°
2026-05-05 08:22 23.45106 81.67547 38883 ft 530 kts 134°
2026-05-05 08:22 23.40322 81.73669 38883 ft 531 kts 134°
2026-05-05 08:23 23.35530 81.79795 38885 ft 531 kts 134°
2026-05-05 08:23 23.30732 81.85921 38889 ft 532 kts 134°
2026-05-05 08:24 23.25927 81.92050 38890 ft 532 kts 134°
2026-05-05 08:24 23.21117 81.98176 38890 ft 533 kts 134°
2026-05-05 08:25 23.16304 82.04298 38890 ft 533 kts 134°
2026-05-05 08:25 23.11488 82.10418 38889 ft 533 kts 134°
2026-05-05 08:26 23.06676 82.16525 38884 ft 532 kts 134°
2026-05-05 08:26 23.01930 82.22696 38887 ft 532 kts 133°
2026-05-05 08:27 22.97294 82.28898 38884 ft 532 kts 133°
2026-05-05 08:27 22.92620 82.35131 38886 ft 532 kts 133°
2026-05-05 08:28 22.87932 82.41338 38886 ft 531 kts 133°
2026-05-05 08:28 22.83243 82.47522 38888 ft 531 kts 133°
2026-05-05 08:29 22.78544 82.53709 38892 ft 531 kts 133°
2026-05-05 08:30 22.71496 82.62983 38894 ft 531 kts 133°
2026-05-05 08:30 22.66794 82.69160 38893 ft 531 kts 133°
2026-05-05 08:31 22.62093 82.75329 38889 ft 531 kts 133°
2026-05-05 08:31 22.57390 82.81493 38904 ft 530 kts 133°
2026-05-05 08:32 22.52719 82.87610 38892 ft 530 kts 133°
2026-05-05 08:32 22.47991 82.93793 38901 ft 530 kts 133°
2026-05-05 08:33 22.43327 82.99884 38897 ft 529 kts 133°
2026-05-05 08:33 22.38637 83.06002 38900 ft 528 kts 134°
2026-05-05 08:34 22.33951 83.12109 38893 ft 527 kts 134°
2026-05-05 08:34 22.29263 83.18211 38891 ft 527 kts 134°
2026-05-05 08:35 22.24588 83.24290 38884 ft 526 kts 134°
2026-05-05 08:35 22.19943 83.30321 38880 ft 526 kts 134°
2026-05-05 08:36 22.15295 83.36414 38877 ft 526 kts 133°
2026-05-05 08:36 22.10762 83.42607 38872 ft 526 kts 132°
2026-05-05 08:37 22.06236 83.48813 38868 ft 526 kts 133°
2026-05-05 08:37 22.01572 83.54874 38866 ft 524 kts 134°
2026-05-05 08:38 21.96837 83.60857 38860 ft 524 kts 134°
2026-05-05 08:38 21.92119 83.66848 38858 ft 525 kts 134°
2026-05-05 08:39 21.87410 83.72861 38857 ft 525 kts 134°
2026-05-05 08:39 21.82707 83.78875 38856 ft 525 kts 134°
2026-05-05 08:40 21.78004 83.84883 38852 ft 525 kts 134°
2026-05-05 08:40 21.73329 83.90846 38849 ft 525 kts 134°
2026-05-05 08:41 21.68618 83.96847 38848 ft 525 kts 134°
2026-05-05 08:41 21.63919 84.02873 38846 ft 525 kts 134°
2026-05-05 08:42 21.59273 84.08925 38847 ft 525 kts 133°
2026-05-05 08:42 21.54629 84.14976 38840 ft 524 kts 134°
2026-05-05 08:43 21.49982 84.21008 38839 ft 524 kts 134°
2026-05-05 08:43 21.45334 84.27024 38836 ft 523 kts 134°
2026-05-05 08:44 21.40681 84.33038 38837 ft 523 kts 134°
2026-05-05 08:44 21.36816 84.38031 38837 ft 523 kts 134°
2026-05-05 08:45 21.31419 84.44996 38836 ft 522 kts 134°
2026-05-05 08:45 21.26778 84.50976 38835 ft 521 kts 134°
2026-05-05 08:46 21.22141 84.56947 38829 ft 521 kts 134°
2026-05-05 08:46 21.17502 84.62912 38822 ft 521 kts 134°
2026-05-05 08:47 21.13641 84.67874 38825 ft 521 kts 134°
2026-05-05 08:47 21.08999 84.73832 38820 ft 521 kts 134°
2026-05-05 08:48 21.04358 84.79782 38818 ft 521 kts 134°
2026-05-05 08:48 20.99706 84.85739 38817 ft 521 kts 134°
2026-05-05 08:49 20.95061 84.91682 38817 ft 520 kts 134°
2026-05-05 08:49 20.90419 84.97615 38819 ft 520 kts 134°
2026-05-05 08:50 20.85773 85.03545 38820 ft 520 kts 134°
2026-05-05 08:50 20.81123 85.09475 38819 ft 520 kts 134°
2026-05-05 08:51 20.76469 85.15405 38820 ft 520 kts 134°
2026-05-05 08:51 20.71851 85.21282 38820 ft 520 kts 134°
2026-05-05 08:52 20.67199 85.27196 38823 ft 520 kts 134°
2026-05-05 08:52 20.62543 85.33110 38824 ft 520 kts 134°
2026-05-05 08:53 20.57885 85.39019 38826 ft 520 kts 134°
2026-05-05 08:53 20.53224 85.44926 38823 ft 520 kts 134°
2026-05-05 08:54 20.48565 85.50823 38827 ft 520 kts 134°
2026-05-05 08:54 20.43901 85.56722 38830 ft 520 kts 134°
2026-05-05 08:55 20.39238 85.62614 38830 ft 520 kts 134°
2026-05-05 08:55 20.34572 85.68503 38829 ft 520 kts 134°
2026-05-05 08:56 20.29900 85.74392 38828 ft 520 kts 134°
2026-05-05 08:56 20.25257 85.80222 38825 ft 518 kts 134°
2026-05-05 08:57 20.20206 85.85673 38828 ft 516 kts 140°
2026-05-05 08:57 20.15032 85.90976 38830 ft 516 kts 140°
2026-05-05 08:58 20.09847 85.96255 38831 ft 516 kts 140°
2026-05-05 08:58 20.04660 86.01549 38834 ft 516 kts 140°
2026-05-05 08:59 19.99481 86.06844 38835 ft 516 kts 140°
2026-05-05 08:59 19.94306 86.12144 38835 ft 517 kts 140°
2026-05-05 09:00 19.89129 86.17445 38837 ft 517 kts 139°
2026-05-05 09:00 19.84013 86.22829 38843 ft 517 kts 138°
2026-05-05 09:01 19.78961 86.28194 38843 ft 517 kts 138°
2026-05-05 09:01 19.73863 86.33586 38841 ft 517 kts 139°
2026-05-05 09:02 19.68763 86.38956 38839 ft 516 kts 139°
2026-05-05 09:02 19.63657 86.44322 38839 ft 516 kts 139°
2026-05-05 09:03 19.58555 86.49669 38836 ft 515 kts 139°
2026-05-05 09:03 19.53436 86.54987 38840 ft 515 kts 139°
2026-05-05 09:04 19.48311 86.60301 38837 ft 515 kts 139°
2026-05-05 09:04 19.43203 86.65601 38839 ft 515 kts 139°
2026-05-05 09:05 19.38084 86.70911 38839 ft 514 kts 139°
2026-05-05 09:05 19.32970 86.76212 38840 ft 514 kts 139°
2026-05-05 09:06 19.27854 86.81509 38841 ft 514 kts 139°
2026-05-05 09:06 19.22737 86.86803 38840 ft 514 kts 139°
2026-05-05 09:07 19.17622 86.92090 38841 ft 514 kts 139°
2026-05-05 09:07 19.12540 86.97337 38843 ft 514 kts 139°
2026-05-05 09:08 19.07422 87.02617 38837 ft 514 kts 139°
2026-05-05 09:08 19.02295 87.07902 38836 ft 514 kts 139°
2026-05-05 09:09 18.97175 87.13174 38837 ft 514 kts 139°
2026-05-05 09:09 18.92050 87.18446 38834 ft 514 kts 139°
2026-05-05 09:10 18.86923 87.23716 38833 ft 514 kts 139°
2026-05-05 09:10 18.81798 87.28980 38843 ft 514 kts 139°
2026-05-05 09:11 18.76674 87.34238 38847 ft 514 kts 139°
2026-05-05 09:11 18.71548 87.39492 38829 ft 514 kts 139°
2026-05-05 09:12 18.66424 87.44740 38848 ft 513 kts 139°
2026-05-05 09:12 18.61299 87.49985 38850 ft 513 kts 139°
2026-05-05 09:13 18.56176 87.55222 38850 ft 513 kts 139°
2026-05-05 09:13 18.51054 87.60454 38846 ft 513 kts 139°
2026-05-05 09:14 18.45928 87.65687 38849 ft 513 kts 139°
2026-05-05 09:14 18.40799 87.70917 38850 ft 513 kts 139°
2026-05-05 09:15 18.35681 87.76131 38842 ft 512 kts 139°
2026-05-05 09:15 18.30556 87.81349 38848 ft 512 kts 139°
2026-05-05 09:16 18.25441 87.86578 38850 ft 512 kts 139°
2026-05-05 09:16 18.20400 87.91815 38849 ft 512 kts 139°
2026-05-05 09:17 18.15337 87.97084 38849 ft 512 kts 139°
2026-05-05 09:17 18.10262 88.02348 38851 ft 512 kts 139°
2026-05-05 09:18 18.05184 88.07601 38850 ft 512 kts 139°
2026-05-05 09:18 18.00103 88.12853 38849 ft 512 kts 139°
2026-05-05 09:19 17.95020 88.18100 38843 ft 512 kts 139°
2026-05-05 09:19 17.89939 88.23344 38845 ft 512 kts 139°
2026-05-05 09:20 17.84863 88.28577 38852 ft 512 kts 139°
2026-05-05 09:20 17.79781 88.33812 38849 ft 511 kts 139°
2026-05-05 09:21 17.74702 88.39041 38852 ft 511 kts 139°
2026-05-05 09:21 17.69627 88.44259 38852 ft 511 kts 139°
2026-05-05 09:22 17.64545 88.49482 38854 ft 511 kts 139°
2026-05-05 09:22 17.59465 88.54697 38854 ft 511 kts 139°
2026-05-05 09:23 17.54423 88.59869 38854 ft 510 kts 139°
2026-05-05 09:23 17.49356 88.65064 38853 ft 510 kts 139°
2026-05-05 09:24 17.44288 88.70254 38851 ft 509 kts 139°
2026-05-05 09:24 17.39216 88.75444 38849 ft 509 kts 139°
2026-05-05 09:25 17.34157 88.80617 38853 ft 509 kts 139°
2026-05-05 09:25 17.29091 88.85792 38853 ft 508 kts 138°
2026-05-05 09:26 17.24034 88.90955 38850 ft 508 kts 138°
2026-05-05 09:26 17.18977 88.96114 38855 ft 508 kts 138°
2026-05-05 09:27 17.13956 89.01299 38854 ft 508 kts 137°
2026-05-05 09:27 17.08950 89.06513 38846 ft 507 kts 137°
2026-05-05 09:28 17.03943 89.11716 38848 ft 507 kts 137°
2026-05-05 09:28 16.98933 89.16907 38853 ft 507 kts 137°
2026-05-05 09:29 16.93919 89.22093 38853 ft 507 kts 137°
2026-05-05 09:29 16.88908 89.27273 38856 ft 507 kts 137°
2026-05-05 09:30 16.83896 89.32450 38858 ft 507 kts 137°
2026-05-05 09:30 16.78886 89.37621 38861 ft 506 kts 137°
2026-05-05 09:31 16.73913 89.42750 38854 ft 506 kts 137°
2026-05-05 09:31 16.68898 89.47919 38853 ft 506 kts 137°
2026-05-05 09:32 16.63893 89.53073 38862 ft 506 kts 137°
2026-05-05 09:32 16.58887 89.58225 38863 ft 506 kts 137°
2026-05-05 09:33 16.53874 89.63379 38860 ft 505 kts 137°
2026-05-05 09:33 16.48870 89.68520 38854 ft 505 kts 137°
2026-05-05 09:34 16.44709 89.72792 38860 ft 505 kts 137°
2026-05-05 09:34 16.39702 89.77929 38863 ft 505 kts 137°
2026-05-05 09:35 16.34698 89.83059 38858 ft 505 kts 137°
2026-05-05 09:35 16.27187 89.90753 38860 ft 504 kts 137°
2026-05-05 09:36 16.22188 89.95867 38863 ft 504 kts 136°
2026-05-05 09:36 16.17190 90.00978 38861 ft 503 kts 136°
2026-05-05 09:37 16.12194 90.06083 38862 ft 503 kts 136°
2026-05-05 09:37 16.07234 90.11146 38860 ft 503 kts 136°
2026-05-05 09:38 16.02245 90.16237 38864 ft 503 kts 136°
2026-05-05 09:38 15.97286 90.21356 38863 ft 503 kts 136°
2026-05-05 09:39 15.92373 90.26535 38862 ft 503 kts 135°
2026-05-05 09:39 15.87456 90.31714 38862 ft 503 kts 136°
2026-05-05 09:40 15.82533 90.36874 38861 ft 502 kts 136°
2026-05-05 09:40 15.77606 90.42027 38862 ft 502 kts 136°
2026-05-05 09:41 15.72684 90.47169 38863 ft 502 kts 136°
2026-05-05 09:41 15.67792 90.52276 38864 ft 502 kts 136°
2026-05-05 09:42 15.62872 90.57409 38866 ft 502 kts 136°
2026-05-05 09:42 15.57948 90.62545 38866 ft 502 kts 136°
2026-05-05 09:43 15.53026 90.67673 38867 ft 501 kts 136°
2026-05-05 09:43 15.48105 90.72797 38867 ft 501 kts 136°
2026-05-05 09:44 15.43184 90.77918 38867 ft 501 kts 136°
2026-05-05 09:44 15.38266 90.83032 38869 ft 501 kts 136°
2026-05-05 09:45 15.33351 90.88139 38868 ft 501 kts 136°
2026-05-05 09:45 15.28428 90.93250 38867 ft 501 kts 136°
2026-05-05 09:46 15.23504 90.98358 38870 ft 501 kts 136°
2026-05-05 09:46 15.18582 91.03462 38868 ft 501 kts 136°
2026-05-05 09:47 15.13683 91.08537 38870 ft 501 kts 136°
2026-05-05 09:47 15.08751 91.13644 38872 ft 502 kts 136°
2026-05-05 09:48 15.03807 91.18759 38872 ft 503 kts 136°
2026-05-05 09:48 14.98862 91.23873 38868 ft 503 kts 136°
2026-05-05 09:49 14.93903 91.28996 38868 ft 504 kts 136°
2026-05-05 09:49 14.88939 91.34122 38871 ft 504 kts 136°
2026-05-05 09:50 14.83971 91.39248 38871 ft 504 kts 136°
2026-05-05 09:50 14.79005 91.44368 38871 ft 504 kts 136°
2026-05-05 09:51 14.74040 91.49484 38870 ft 504 kts 136°
2026-05-05 09:51 14.69077 91.54595 38876 ft 504 kts 136°
2026-05-05 09:52 14.64115 91.59701 38870 ft 503 kts 136°
2026-05-05 09:52 14.59187 91.64769 38871 ft 503 kts 136°
2026-05-05 09:53 14.54227 91.69866 38872 ft 503 kts 136°
2026-05-05 09:53 14.49267 91.74959 38874 ft 503 kts 136°
2026-05-05 09:54 14.44302 91.80053 38869 ft 503 kts 136°
2026-05-05 09:54 14.39341 91.85141 38874 ft 503 kts 136°
2026-05-05 09:55 14.34370 91.90235 38870 ft 503 kts 136°
2026-05-05 09:55 14.29400 91.95326 38864 ft 504 kts 136°
2026-05-05 09:56 14.24427 92.00416 38874 ft 504 kts 136°
2026-05-05 09:56 14.19503 92.05563 38871 ft 504 kts 135°
2026-05-05 09:57 14.14622 92.10745 38868 ft 504 kts 135°
2026-05-05 09:57 14.09730 92.15921 38869 ft 504 kts 135°
2026-05-05 09:58 14.04827 92.21088 38869 ft 504 kts 135°
2026-05-05 09:58 13.99954 92.26211 38866 ft 504 kts 135°
2026-05-05 09:59 13.95046 92.31368 38867 ft 503 kts 135°
2026-05-05 09:59 13.90113 92.36490 38867 ft 503 kts 136°
2026-05-05 10:00 13.85077 92.41507 38868 ft 503 kts 137°
2026-05-05 10:00 13.80027 92.46513 38866 ft 503 kts 137°
2026-05-05 10:01 13.75001 92.51524 38868 ft 504 kts 136°
2026-05-05 10:01 13.70006 92.56521 38869 ft 504 kts 136°
2026-05-05 10:02 13.64976 92.61557 38866 ft 505 kts 136°
2026-05-05 10:02 13.59945 92.66587 38868 ft 505 kts 136°
2026-05-05 10:03 13.54903 92.71623 38867 ft 505 kts 136°
2026-05-05 10:03 13.49860 92.76656 38867 ft 505 kts 137°
2026-05-05 10:04 13.44820 92.81684 38865 ft 505 kts 137°
2026-05-05 10:04 13.39784 92.86704 38870 ft 504 kts 137°
2026-05-05 10:05 13.34752 92.91717 38864 ft 504 kts 137°
2026-05-05 10:05 13.29721 92.96726 38865 ft 503 kts 137°
2026-05-05 10:06 13.24700 93.01721 38869 ft 503 kts 137°
2026-05-05 10:06 13.19680 93.06713 38867 ft 502 kts 137°
2026-05-05 10:07 13.14662 93.11700 38871 ft 502 kts 137°
2026-05-05 10:07 13.09685 93.16643 38872 ft 501 kts 137°
2026-05-05 10:08 13.04669 93.21622 38869 ft 501 kts 137°
2026-05-05 10:08 12.99659 93.26591 38870 ft 501 kts 137°
2026-05-05 10:09 12.94642 93.31566 38869 ft 502 kts 137°
2026-05-05 10:09 12.89624 93.36538 38868 ft 502 kts 137°
2026-05-05 10:10 12.84601 93.41512 38865 ft 502 kts 137°
2026-05-05 10:10 12.79578 93.46483 38866 ft 502 kts 137°
2026-05-05 10:11 12.74558 93.51449 38867 ft 501 kts 137°
2026-05-05 10:11 12.69546 93.56403 38864 ft 501 kts 137°
2026-05-05 10:12 12.64558 93.61331 38865 ft 501 kts 137°
2026-05-05 10:12 12.59540 93.66286 38865 ft 501 kts 136°
2026-05-05 10:13 12.54523 93.71236 38864 ft 501 kts 136°
2026-05-05 10:13 12.49508 93.76183 38865 ft 501 kts 136°
2026-05-05 10:14 12.44489 93.81130 38862 ft 501 kts 136°
2026-05-05 10:14 12.39471 93.86074 38863 ft 501 kts 136°
2026-05-05 10:15 12.34446 93.91022 38860 ft 501 kts 136°
2026-05-05 10:15 12.29424 93.95966 38862 ft 501 kts 136°
2026-05-05 10:16 12.24394 94.00913 38861 ft 501 kts 136°
2026-05-05 10:16 12.19371 94.05862 38862 ft 501 kts 136°
2026-05-05 10:17 12.14411 94.10798 38860 ft 501 kts 136°
2026-05-05 10:17 12.09420 94.15771 38855 ft 501 kts 136°
2026-05-05 10:18 12.04422 94.20742 38856 ft 501 kts 136°
2026-05-05 10:18 11.99427 94.25701 38857 ft 501 kts 136°
2026-05-05 10:19 11.94431 94.30658 38855 ft 500 kts 136°
2026-05-05 10:19 11.89443 94.35603 38859 ft 500 kts 136°
2026-05-05 10:20 11.84443 94.40560 38854 ft 500 kts 136°
2026-05-05 10:20 11.79592 94.45645 38856 ft 500 kts 131°
2026-05-05 10:21 11.75108 94.51072 38855 ft 500 kts 130°
2026-05-05 10:21 11.70642 94.56520 38856 ft 500 kts 130°
2026-05-05 10:22 11.66880 94.61000 38854 ft 500 kts 131°
2026-05-05 10:22 11.62326 94.66349 38852 ft 500 kts 131°
2026-05-05 10:23 11.57015 94.72563 38851 ft 500 kts 131°
2026-05-05 10:23 11.53190 94.77041 38851 ft 499 kts 131°
2026-05-05 10:24 11.47890 94.83248 38853 ft 499 kts 131°
2026-05-05 10:24 11.44065 94.87725 38851 ft 499 kts 131°
2026-05-05 10:25 11.39502 94.93065 38848 ft 499 kts 131°
2026-05-05 10:25 11.34969 94.98366 38852 ft 499 kts 131°
2026-05-05 10:26 11.30411 95.03693 38848 ft 499 kts 130°
2026-05-05 10:26 11.25852 95.09020 38848 ft 499 kts 130°
2026-05-05 10:27 11.21297 95.14339 38850 ft 498 kts 130°
2026-05-05 10:27 11.16734 95.19665 38850 ft 498 kts 131°
2026-05-05 10:28 11.12176 95.24984 38850 ft 498 kts 131°
2026-05-05 10:28 11.07609 95.30308 38847 ft 498 kts 131°
2026-05-05 10:29 11.03050 95.35621 38843 ft 498 kts 131°
2026-05-05 10:29 10.98483 95.40940 38842 ft 498 kts 131°
2026-05-05 10:30 10.93920 95.46252 38841 ft 498 kts 131°
2026-05-05 10:30 10.89391 95.51521 38842 ft 498 kts 131°
2026-05-05 10:31 10.84828 95.56827 38842 ft 498 kts 131°
2026-05-05 10:31 10.80256 95.62140 38845 ft 498 kts 131°
2026-05-05 10:32 10.75692 95.67442 38839 ft 498 kts 131°
2026-05-05 10:32 10.71134 95.72733 38839 ft 497 kts 131°
2026-05-05 10:33 10.66572 95.78028 38841 ft 497 kts 131°
2026-05-05 10:33 10.62016 95.83313 38836 ft 497 kts 131°
2026-05-05 10:34 10.57456 95.88600 38841 ft 497 kts 131°
2026-05-05 10:34 10.52899 95.93880 38839 ft 497 kts 131°
2026-05-05 10:35 10.48345 95.99154 38840 ft 496 kts 131°
2026-05-05 10:35 10.43791 96.04426 38840 ft 496 kts 131°
2026-05-05 10:36 10.39233 96.09700 38841 ft 497 kts 131°
2026-05-05 10:36 10.34675 96.14972 38838 ft 497 kts 131°
2026-05-05 10:37 10.30114 96.20245 38836 ft 497 kts 131°
2026-05-05 10:37 10.25551 96.25517 38838 ft 497 kts 130°
2026-05-05 10:38 10.21011 96.30760 38837 ft 498 kts 130°
2026-05-05 10:38 10.16430 96.36050 38838 ft 499 kts 130°
2026-05-05 10:39 10.11850 96.41333 38835 ft 499 kts 130°
2026-05-05 10:39 10.07269 96.46618 38838 ft 499 kts 130°
2026-05-05 10:40 10.02671 96.51919 38841 ft 500 kts 130°
2026-05-05 10:40 9.97858 96.57021 38836 ft 501 kts 135°
2026-05-05 10:41 9.92768 96.61852 38833 ft 501 kts 136°
2026-05-05 10:41 9.87667 96.66614 38833 ft 501 kts 136°
2026-05-05 10:42 9.79988 96.73801 38837 ft 501 kts 136°
2026-05-05 10:43 9.74878 96.78597 38832 ft 501 kts 136°
2026-05-05 10:43 9.69765 96.83395 38830 ft 500 kts 136°
2026-05-05 10:44 9.64656 96.88188 38833 ft 500 kts 136°
2026-05-05 10:44 9.59560 96.92965 38827 ft 499 kts 136°
2026-05-05 10:45 9.54453 96.97750 38829 ft 499 kts 136°
2026-05-05 10:45 9.49393 97.02490 38828 ft 498 kts 136°
2026-05-05 10:46 9.44306 97.07252 38829 ft 498 kts 136°
2026-05-05 10:46 9.39222 97.12009 38829 ft 497 kts 136°
2026-05-05 10:47 9.34145 97.16758 38827 ft 496 kts 136°
2026-05-05 10:47 9.29078 97.21496 38828 ft 496 kts 136°
2026-05-05 10:48 9.24013 97.26231 38828 ft 495 kts 136°
2026-05-05 10:48 9.18947 97.30964 38827 ft 495 kts 136°
2026-05-05 10:49 9.13885 97.35692 38828 ft 495 kts 136°
2026-05-05 10:49 9.08822 97.40418 38825 ft 495 kts 136°
2026-05-05 10:50 9.03765 97.45136 38824 ft 494 kts 136°
2026-05-05 10:50 8.98719 97.49843 38827 ft 493 kts 136°
2026-05-05 10:51 8.93705 97.54517 38822 ft 493 kts 136°
2026-05-05 10:51 8.88675 97.59205 38826 ft 492 kts 136°
2026-05-05 10:52 8.83641 97.63896 38820 ft 491 kts 136°
2026-05-05 10:52 8.78611 97.68564 38825 ft 491 kts 136°
2026-05-05 10:53 8.73582 97.73220 38826 ft 490 kts 136°
2026-05-05 10:53 8.68556 97.77875 38828 ft 490 kts 136°
2026-05-05 10:54 8.63526 97.82535 38828 ft 490 kts 136°
2026-05-05 10:54 8.58499 97.87192 38828 ft 490 kts 136°
2026-05-05 10:55 8.53469 97.91849 38825 ft 491 kts 136°
2026-05-05 10:55 8.48436 97.96508 38822 ft 491 kts 136°
2026-05-05 10:56 8.43405 98.01169 38817 ft 491 kts 136°
2026-05-05 10:56 8.38395 98.05800 38817 ft 491 kts 136°
2026-05-05 10:57 8.33343 98.10467 38803 ft 492 kts 136°
2026-05-05 10:57 8.28289 98.15138 38789 ft 492 kts 136°
2026-05-05 10:58 8.23236 98.19806 38778 ft 493 kts 136°
2026-05-05 10:58 8.18173 98.24483 38777 ft 494 kts 136°
2026-05-05 10:59 8.13099 98.29168 38770 ft 494 kts 136°
2026-05-05 10:59 8.07965 98.33783 38773 ft 494 kts 139°
2026-05-05 11:00 8.02634 98.38099 38776 ft 495 kts 140°
2026-05-05 11:00 7.97244 98.42407 38777 ft 494 kts 139°
2026-05-05 11:01 7.91863 98.46784 38783 ft 493 kts 139°
2026-05-05 11:01 7.86545 98.51154 38784 ft 493 kts 139°
2026-05-05 11:02 7.81273 98.55493 38793 ft 492 kts 139°
2026-05-05 11:02 7.75960 98.59860 38788 ft 492 kts 139°
2026-05-05 11:03 7.70661 98.64216 38793 ft 492 kts 139°
2026-05-05 11:03 7.65361 98.68577 38795 ft 491 kts 139°
2026-05-05 11:04 7.60063 98.72930 38802 ft 491 kts 139°
2026-05-05 11:04 7.54767 98.77281 38799 ft 491 kts 139°
2026-05-05 11:05 7.49471 98.81632 38799 ft 491 kts 139°
2026-05-05 11:05 7.44178 98.85982 38800 ft 491 kts 139°
2026-05-05 11:06 7.38885 98.90324 38802 ft 490 kts 140°
2026-05-05 11:06 7.33626 98.94632 38801 ft 490 kts 140°
2026-05-05 11:07 7.28338 98.98964 38807 ft 490 kts 140°
2026-05-05 11:07 7.23054 99.03293 38809 ft 490 kts 140°
2026-05-05 11:08 7.17765 99.07625 38806 ft 490 kts 140°
2026-05-05 11:08 7.12484 99.11949 38815 ft 490 kts 140°
2026-05-05 11:09 7.07194 99.16279 38809 ft 490 kts 140°
2026-05-05 11:09 7.01902 99.20610 38803 ft 490 kts 140°
2026-05-05 11:10 6.96607 99.24942 38806 ft 490 kts 140°
2026-05-05 11:10 6.91309 99.29274 38806 ft 491 kts 140°
2026-05-05 11:11 6.86014 99.33604 38806 ft 491 kts 140°
2026-05-05 11:11 6.80716 99.37934 38810 ft 491 kts 140°
2026-05-05 11:12 6.75417 99.42264 38812 ft 491 kts 140°
2026-05-05 11:12 6.70112 99.46597 38811 ft 491 kts 139°
2026-05-05 11:13 6.65712 99.50190 38809 ft 491 kts 139°
2026-05-05 11:13 6.60404 99.54524 38804 ft 491 kts 139°
2026-05-05 11:14 6.55097 99.58856 38800 ft 491 kts 139°
2026-05-05 11:14 6.49793 99.63185 38787 ft 491 kts 139°
2026-05-05 11:15 6.44483 99.67507 38779 ft 491 kts 140°
2026-05-05 11:15 6.39090 99.71740 38774 ft 492 kts 141°
2026-05-05 11:16 6.33877 99.76171 38773 ft 491 kts 134°
2026-05-05 11:16 6.29046 99.81009 38770 ft 490 kts 133°
2026-05-05 11:17 6.24310 99.85885 38782 ft 490 kts 133°
2026-05-05 11:17 6.19546 99.90791 38788 ft 491 kts 133°
2026-05-05 11:18 6.14765 99.95690 38797 ft 491 kts 133°
2026-05-05 11:18 6.09983 100.00579 38807 ft 490 kts 133°
2026-05-05 11:19 6.05203 100.05463 38810 ft 490 kts 133°
2026-05-05 11:19 6.00424 100.10346 38808 ft 490 kts 133°
2026-05-05 11:20 5.95648 100.15226 38803 ft 489 kts 133°
2026-05-05 11:20 5.90878 100.20099 38806 ft 489 kts 133°
2026-05-05 11:21 5.86100 100.24978 38802 ft 489 kts 134°
2026-05-05 11:21 5.81327 100.29850 38800 ft 489 kts 134°
2026-05-05 11:22 5.76552 100.34723 38797 ft 489 kts 134°
2026-05-05 11:22 5.71776 100.39596 38784 ft 490 kts 134°
2026-05-05 11:23 5.66999 100.44468 38794 ft 490 kts 134°
2026-05-05 11:23 5.62256 100.49306 38779 ft 490 kts 134°
2026-05-05 11:24 5.57477 100.54178 38790 ft 490 kts 134°
2026-05-05 11:24 5.52696 100.59052 38781 ft 490 kts 134°
2026-05-05 11:25 5.47917 100.63921 38803 ft 489 kts 134°
2026-05-05 11:25 5.43139 100.68789 38799 ft 489 kts 134°
2026-05-05 11:26 5.37952 100.73197 38826 ft 490 kts 147°
2026-05-05 11:26 5.31687 100.75846 38819 ft 492 kts 166°
2026-05-05 11:27 5.24941 100.77055 38819 ft 493 kts 171°
2026-05-05 11:27 5.18147 100.78047 38829 ft 493 kts 171°
2026-05-05 11:28 5.11358 100.79060 38820 ft 493 kts 170°
2026-05-05 11:28 5.04582 100.80116 38817 ft 493 kts 170°
2026-05-05 11:29 4.97808 100.81189 38821 ft 493 kts 170°
2026-05-05 11:29 4.91080 100.82256 38818 ft 492 kts 170°
2026-05-05 11:30 4.84306 100.83328 38820 ft 493 kts 170°
2026-05-05 11:30 4.77535 100.84398 38819 ft 493 kts 170°
2026-05-05 11:31 4.70751 100.85468 38812 ft 493 kts 170°
2026-05-05 11:31 4.63961 100.86540 38807 ft 494 kts 170°
2026-05-05 11:32 4.57174 100.87611 38807 ft 494 kts 170°
2026-05-05 11:32 4.50381 100.88684 38805 ft 494 kts 170°
2026-05-05 11:33 4.43785 100.90431 38349 ft 487 kts 156°
2026-05-05 11:33 4.40715 100.91869 37576 ft 488 kts 153°
2026-05-05 11:33 4.37667 100.93372 36795 ft 490 kts 153°
2026-05-05 11:33 4.34599 100.94882 36031 ft 492 kts 153°
2026-05-05 11:34 4.31518 100.96391 35264 ft 494 kts 154°
2026-05-05 11:34 4.28418 100.97905 34507 ft 496 kts 154°
2026-05-05 11:34 4.25350 100.99401 33729 ft 499 kts 154°
2026-05-05 11:34 4.22221 101.00925 32888 ft 500 kts 154°
2026-05-05 11:35 4.19090 101.02449 32102 ft 500 kts 154°
2026-05-05 11:35 4.15956 101.03974 31312 ft 500 kts 154°
2026-05-05 11:35 4.12820 101.05502 30488 ft 501 kts 154°
2026-05-05 11:35 4.09682 101.07029 29586 ft 503 kts 154°
2026-05-05 11:36 4.06531 101.08563 28681 ft 502 kts 154°
2026-05-05 11:36 4.03398 101.10087 27919 ft 499 kts 154°
2026-05-05 11:36 4.00286 101.11602 27233 ft 494 kts 153°
2026-05-05 11:36 3.97205 101.13101 26549 ft 490 kts 153°
2026-05-05 11:37 3.94159 101.14583 25892 ft 485 kts 153°
2026-05-05 11:37 3.91133 101.16055 25268 ft 481 kts 153°
2026-05-05 11:37 3.88144 101.17509 24613 ft 476 kts 153°
2026-05-05 11:37 3.85168 101.18957 23993 ft 472 kts 153°
2026-05-05 11:38 3.82230 101.20386 23380 ft 468 kts 153°
2026-05-05 11:38 3.79321 101.21810 22649 ft 463 kts 152°
2026-05-05 11:38 3.76595 101.23486 21867 ft 458 kts 142°
2026-05-05 11:38 3.74292 101.25652 21214 ft 451 kts 133°
2026-05-05 11:39 3.72180 101.27941 20573 ft 445 kts 131°
2026-05-05 11:39 3.70084 101.30218 19896 ft 441 kts 132°
2026-05-05 11:39 3.68005 101.32457 19255 ft 437 kts 132°
2026-05-05 11:39 3.65940 101.34670 18617 ft 432 kts 132°
2026-05-05 11:40 3.63898 101.36853 17979 ft 428 kts 132°
2026-05-05 11:40 3.61865 101.39024 17249 ft 424 kts 132°
2026-05-05 11:40 3.59878 101.41146 16552 ft 421 kts 132°
2026-05-05 11:40 3.57889 101.43267 15850 ft 416 kts 132°
2026-05-05 11:41 3.55916 101.45372 15179 ft 413 kts 132°
2026-05-05 11:41 3.53961 101.47456 14527 ft 409 kts 132°
2026-05-05 11:41 3.52025 101.49519 13880 ft 405 kts 132°
2026-05-05 11:41 3.50106 101.51564 13200 ft 400 kts 132°
2026-05-05 11:42 3.48209 101.53583 12469 ft 396 kts 132°
2026-05-05 11:42 3.46328 101.55586 11763 ft 393 kts 132°
2026-05-05 11:42 3.44469 101.57565 11253 ft 388 kts 132°
2026-05-05 11:42 3.42624 101.59532 11050 ft 388 kts 132°
2026-05-05 11:43 3.40772 101.61503 11018 ft 389 kts 132°
2026-05-05 11:43 3.38921 101.63476 11009 ft 388 kts 132°
2026-05-05 11:43 3.37071 101.65439 11012 ft 386 kts 133°
2026-05-05 11:43 3.35185 101.67254 11001 ft 365 kts 137°
2026-05-05 11:44 3.33290 101.68842 11001 ft 344 kts 140°
2026-05-05 11:44 3.31478 101.70307 11003 ft 325 kts 140°
2026-05-05 11:44 3.29758 101.71691 10998 ft 309 kts 140°
2026-05-05 11:44 3.28114 101.73011 10996 ft 301 kts 140°
2026-05-05 11:45 3.26482 101.74324 11003 ft 301 kts 140°
2026-05-05 11:45 3.24852 101.75640 11004 ft 301 kts 140°
2026-05-05 11:45 3.23221 101.76954 11006 ft 301 kts 140°
2026-05-05 11:45 3.21591 101.78267 11009 ft 301 kts 140°
2026-05-05 11:46 3.19959 101.79582 11004 ft 301 kts 140°
2026-05-05 11:46 3.18328 101.80895 11007 ft 301 kts 140°
2026-05-05 11:46 3.16695 101.82212 11007 ft 301 kts 140°
2026-05-05 11:46 3.15065 101.83526 11010 ft 301 kts 140°
2026-05-05 11:47 3.13435 101.84844 11006 ft 301 kts 140°
2026-05-05 11:47 3.11839 101.86135 10826 ft 295 kts 140°
2026-05-05 11:47 3.10240 101.87430 10359 ft 297 kts 140°
2026-05-05 11:47 3.08630 101.88740 9930 ft 298 kts 140°
2026-05-05 11:48 3.05415 101.91360 9090 ft 297 kts 140°
2026-05-05 11:48 3.03814 101.92654 8681 ft 295 kts 140°
2026-05-05 11:48 3.02224 101.93935 8300 ft 293 kts 140°
2026-05-05 11:49 3.00646 101.95206 8049 ft 290 kts 140°
2026-05-05 11:49 2.99074 101.96468 7998 ft 291 kts 140°
2026-05-05 11:49 2.97489 101.97737 7990 ft 291 kts 140°
2026-05-05 11:49 2.95906 101.99004 7995 ft 292 kts 140°
2026-05-05 11:50 2.94323 102.00272 7995 ft 291 kts 140°
2026-05-05 11:50 2.92741 102.01540 7999 ft 291 kts 140°
2026-05-05 11:50 2.91162 102.02805 7993 ft 291 kts 140°
2026-05-05 11:50 2.89580 102.04073 7994 ft 291 kts 140°
2026-05-05 11:51 2.87993 102.05340 7998 ft 292 kts 140°
2026-05-05 11:51 2.86406 102.06603 7773 ft 292 kts 140°
2026-05-05 11:51 2.84820 102.07866 7400 ft 290 kts 140°
2026-05-05 11:51 2.83268 102.09105 7022 ft 289 kts 140°
2026-05-05 11:52 2.81697 102.10353 6658 ft 287 kts 140°
2026-05-05 11:52 2.80130 102.11586 6293 ft 286 kts 140°
2026-05-05 11:52 2.78576 102.12811 6048 ft 283 kts 140°
2026-05-05 11:52 2.77029 102.14031 6010 ft 283 kts 140°
2026-05-05 11:53 2.75476 102.15253 6004 ft 284 kts 140°
2026-05-05 11:53 2.73924 102.16473 6006 ft 283 kts 140°
2026-05-05 11:53 2.72374 102.17690 5999 ft 283 kts 140°
2026-05-05 11:53 2.70668 102.18694 5995 ft 287 kts 155°
2026-05-05 11:54 2.68717 102.19087 6005 ft 290 kts 179°
2026-05-05 11:54 2.66774 102.18597 6005 ft 291 kts 206°
2026-05-05 11:54 2.65274 102.17270 6013 ft 290 kts 233°
2026-05-05 11:54 2.64204 102.15578 6016 ft 286 kts 239°
2026-05-05 11:55 2.62896 102.14061 6014 ft 290 kts 225°
2026-05-05 11:55 2.61479 102.12636 6007 ft 288 kts 226°
2026-05-05 11:55 2.60099 102.11183 6007 ft 288 kts 227°
2026-05-05 11:55 2.58766 102.09692 6007 ft 288 kts 229°
2026-05-05 11:56 2.57492 102.08178 6005 ft 287 kts 231°
2026-05-05 11:56 2.56258 102.06609 6003 ft 287 kts 233°
2026-05-05 11:56 2.55084 102.04997 6008 ft 287 kts 235°
2026-05-05 11:56 2.53985 102.03353 5944 ft 279 kts 238°
2026-05-05 11:57 2.53001 102.01729 5777 ft 268 kts 240°
2026-05-05 11:57 2.52126 102.00118 5637 ft 259 kts 243°
2026-05-05 11:57 2.51370 101.98524 5482 ft 250 kts 246°
2026-05-05 11:57 2.50741 101.96939 5343 ft 241 kts 251°
2026-05-05 11:58 2.50262 101.95365 5193 ft 232 kts 256°
2026-05-05 11:58 2.49815 101.93845 5075 ft 224 kts 251°
2026-05-05 11:58 2.49241 101.92425 4928 ft 217 kts 247°
2026-05-05 11:58 2.48722 101.91029 4672 ft 213 kts 254°
2026-05-05 11:59 2.48799 101.89569 4242 ft 213 kts 292°
2026-05-05 11:59 2.49719 101.88490 4005 ft 201 kts 324°
2026-05-05 11:59 2.50917 101.87812 3766 ft 197 kts 334°
2026-05-05 11:59 2.52130 101.87176 3463 ft 197 kts 333°
2026-05-05 12:00 2.53293 101.86512 3319 ft 188 kts 330°
2026-05-05 12:00 2.54395 101.85840 3100 ft 185 kts 329°
2026-05-05 12:00 2.55122 101.85380 3024 ft 188 kts 328°
2026-05-05 12:00 2.56611 101.84418 2995 ft 191 kts 327°
2026-05-05 12:01 2.57704 101.83696 2986 ft 188 kts 327°
2026-05-05 12:01 2.58786 101.83017 2980 ft 183 kts 328°
2026-05-05 12:01 2.59509 101.82544 2995 ft 184 kts 327°
2026-05-05 12:01 2.60919 101.81589 2994 ft 185 kts 326°
2026-05-05 12:02 2.61985 101.80869 2953 ft 185 kts 327°
2026-05-05 12:02 2.63057 101.80156 2740 ft 184 kts 327°
2026-05-05 12:02 2.63775 101.79677 2574 ft 182 kts 326°
2026-05-05 12:02 2.64804 101.78982 2345 ft 179 kts 326°
2026-05-05 12:03 2.65825 101.78292 2104 ft 170 kts 325°
2026-05-05 12:03 2.66769 101.77657 1891 ft 162 kts 325°
2026-05-05 12:03 2.67673 101.77047 1683 ft 151 kts 325°
2026-05-05 12:03 2.68515 101.76479 1488 ft 141 kts 324°
2026-05-05 12:04 2.69318 101.75938 1331 ft 139 kts 324°
2026-05-05 12:04 2.70119 101.75397 1144 ft 139 kts 325°
2026-05-05 12:04 2.70920 101.74858 972 ft 139 kts 325°
2026-05-05 12:04 2.71720 101.74318 806 ft 139 kts 325°
2026-05-05 12:05 2.72519 101.73779 649 ft 138 kts 326°
2026-05-05 12:05 2.73309 101.73238 500 ft 138 kts 325°
2026-05-05 12:05 2.74107 101.72696 280 ft 138 kts 326°
2026-05-05 12:05 2.74901 101.72164 136 ft 138 kts 326°
2026-05-05 12:06 2.75567 101.71718 82 ft 121 kts 326°
2026-05-05 12:06 2.76066 101.71383 69 ft 70 kts 326°
2026-05-05 12:06 2.76443 101.71120 63 ft 61 kts 318°
2026-05-05 12:06 2.76572 101.70909 68 ft 11 kts 274°
2026-05-05 12:07 2.76540 101.70864 67 ft 9 kts 197°
2026-05-05 12:07 2.76466 101.70888 67 ft 14 kts 149°
2026-05-05 12:07 2.76378 101.70944 64 ft 16 kts 147°
2026-05-05 12:07 2.76271 101.71015 64 ft 23 kts 146°
2026-05-05 12:08 2.76101 101.71129 67 ft 34 kts 146°
2026-05-05 12:08 2.75905 101.71261 69 ft 34 kts 146°
2026-05-05 12:08 2.75707 101.71394 81 ft 35 kts 146°
2026-05-05 12:08 2.75501 101.71532 69 ft 36 kts 146°
2026-05-05 12:09 2.75290 101.71674 69 ft 32 kts 146°
2026-05-05 12:09 2.75210 101.71693 73 ft 11 kts 204°
2026-05-05 12:09 2.75166 101.71637 83 ft 13 kts 236°
2026-05-05 12:09 2.75102 101.71542 83 ft 18 kts 236°
2026-05-05 12:10 2.75046 101.71473 82 ft 2 kts 199°
2026-05-05 12:10 2.75016 101.71496 84 ft 8 kts 143°
2026-05-05 12:10 2.75003 101.71505 81 ft 1 kts 142°
2026-05-05 12:10 2.75000 101.71508 82 ft 0 kts 141°
2026-05-05 12:11 2.74996 101.71511 84 ft 0 kts 142°